GFSNGP_850_dewp_078.txt.gz
Dewpoint
1 2 2 2 2 2 0 -0 2 -0 -0 -1 -1 -1 -1 1 2 3 3 3 3 3 2 2 1 1 1 0 0 1 1 1 2 2 2 2 2 2 2 2 2 2 3 2
1 0 1 2 2 2 1 0 0 0 0 -3 -3 -3 -3 -2 0 2 2 2 2 2 2 2 1 1 0 0 1 1 1 1 1 2 2 2 2 2 3 3 2 2 1 1
1 1 1 2 2 2 2 1 0 1 -1 -4 -3 -3 -4 -4 -3 -1 1 2 2 2 2 2 1 1 0 0 1 1 0 1 1 1 2 2 3 2 1 1 0 -0 -0 -0
2 1 4 -2 -1 0 1 1 -0 -1 -2 -2 -3 -3 -4 -3 -3 -1 0 2 2 2 1 1 1 0 0 0 0 0 0 0 1 1 1 2 1 0 -0 -1 -1 -1 -1 -1
2 2 -1 1 1 1 2 2 -0 -0 -2 -0 -0 -0 0 1 1 2 3 3 3 2 1 1 0 0 0 0 0 0 0 0 0 1 1 0 -0 -1 -1 -1 -1 -2 -2 -2
1 2 4 1 -0 -1 0 5 0 -1 -1 1 2 2 1 0 0 1 1 2 2 1 0 -0 -0 0 0 0 0 0 0 0 0 1 -0 -1 -1 -1 -2 -2 -2 -5 -17 -20
2 1 1 -1 1 0 5 2 0 -1 -2 1 2 1 2 3 2 2 2 1 1 0 -0 -1 -0 0 0 0 -0 -0 0 0 -0 -1 -1 -1 -2 -2 -2 -4 -15 -19 -20 -22
1 1 1 0 -1 3 2 2 2 1 1 2 2 2 3 3 2 2 2 1 0 -0 -1 -1 -0 -0 -0 -0 -0 -0 0 -0 -1 -1 -2 -2 -2 -2 -11 -17 -19 -21 -22 -24
-0 -1 -3 -1 -0 -0 2 2 2 2 2 2 2 2 2 2 2 2 1 1 0 -0 -1 -1 -0 -1 -1 -1 -1 -1 -0 -1 -1 -2 -2 -2 -4 -13 -18 -20 -22 -23 -24 -25
-0 -2 -2 -1 -0 1 1 2 2 2 1 1 2 2 1 1 1 1 1 1 1 -0 -1 -1 -1 -1 -2 -2 -1 -1 -0 -2 -2 -2 -2 -5 -13 -18 -19 -21 -22 -24 -26 -27
-0 -1 -2 -1 -0 0 1 1 2 2 3 2 2 2 2 2 1 1 1 1 1 -0 -1 -1 -1 -2 -2 -2 -1 -1 -1 -2 -2 -2 -7 -14 -16 -18 -20 -21 -23 -25 -27 -29
1 -1 -1 0 -0 2 1 1 1 1 1 1 1 1 1 2 2 1 1 1 1 -0 -1 -1 -1 -1 -1 -2 -1 -1 -1 -2 -2 -4 -13 -15 -17 -19 -21 -22 -23 -25 -30 -30
-1 -1 0 1 2 1 1 1 0 1 0 0 1 1 1 2 2 2 2 2 1 0 -1 -1 -1 -1 -2 -2 -1 -1 -1 -1 -2 -10 -15 -15 -17 -19 -21 -22 -23 -26 -31 -30
-1 -1 2 2 1 1 1 1 1 0 0 0 1 1 1 2 2 2 2 2 2 0 -1 -1 -1 -1 -1 -1 -0 -1 -1 -2 -3 -14 -16 -15 -16 -18 -21 -22 -22 -25 -29 -30
-0 0 -1 0 1 1 1 1 1 0 0 0 0 1 1 1 2 2 2 2 2 1 0 -1 -1 -1 -1 -1 -1 -1 -1 -2 -5 -15 -16 -16 -15 -17 -19 -20 -21 -23 -29 -31
-0 1 0 0 1 1 1 0 0 0 -0 0 0 1 1 1 1 2 2 2 2 2 1 0 -1 -1 -1 -1 -1 -1 -1 -2 -6 -15 -16 -16 -15 -16 -18 -20 -22 -23 -26 -30
1 1 0 0 0 0 0 0 -0 -0 -0 -0 -0 0 0 0 1 1 1 1 2 2 2 2 1 -1 -1 -1 -1 -1 -1 -2 -6 -14 -17 -17 -17 -15 -16 -19 -22 -23 -23 -28
0 0 0 -0 -0 -0 -1 -1 -1 -1 -1 -1 -0 -0 0 0 1 1 1 1 1 1 1 1 1 1 -1 -1 -1 -1 -1 -1 -3 -11 -16 -17 -17 -17 -15 -16 -20 -22 -23 -24
-0 -1 -1 -1 -1 -1 -1 -1 -1 -1 -1 -1 -1 -1 -0 0 -0 0 1 1 1 1 1 1 1 1 1 -0 -1 -1 -0 -0 -2 -4 -11 -16 -17 -18 -17 -16 -17 -20 -22 -22
-1 -1 -2 -2 -1 -1 -1 -1 -1 -1 -1 -1 -1 -1 -1 -0 -1 -1 -0 0 1 1 1 1 1 1 1 1 0 -0 -0 0 -0 -1 -5 -12 -15 -17 -18 -18 -16 -17 -21 -22
-1 -1 -2 -2 -2 -2 -2 -2 -2 -2 -2 -2 -2 -2 -1 -1 -2 -1 -0 0 0 1 1 1 1 1 1 1 0 0 0 -0 -0 -0 -1 -5 -10 -13 -15 -17 -17 -16 -19 -21
-1 -3 -5 -10 -15 -12 -9 -8 -7 -4 -2 -2 -2 -2 -2 -2 -1 -2 -1 -1 -1 -1 -0 0 1 1 0 1 0 -0 -0 -0 -1 -1 -1 -2 -2 -3 -7 -14 -17 -16 -14 -18
-2 -8 -13 -16 -20 -20 -19 -19 -18 -12 -6 -4 -3 -2 -2 -2 -2 -2 -2 -2 -2 -2 -1 -1 -1 -0 -1 -0 -0 -0 -1 -1 -1 -1 -1 -1 -2 -2 -3 -4 -14 -7 -7 -14
-11 -13 -17 -20 -22 -21 -20 -19 -19 -18 -16 -11 -7 -4 -3 -2 -2 -3 -3 -3 -3 -2 -2 -2 -1 -1 -1 -1 -1 -1 -1 -2 -2 -2 -2 -2 -2 -2 -2 -3 -4 -4 -7 -5
-10 -13 -17 -22 -22 -22 -21 -20 -19 -18 -17 -18 -17 -11 -7 -5 -4 -3 -3 -3 -3 -3 -2 -2 -3 -3 -2 -2 -2 -2 -3 -3 -3 -3 -3 -3 -2 -3 -3 -3 -4 -3 -5 -15
-9 -12 -17 -21 -24 -24 -23 -21 -19 -18 -17 -18 -17 -16 -16 -11 -8 -6 -5 -4 -3 -3 -3 -3 -3 -3 -3 -3 -3 -3 -3 -4 -4 -4 -4 -4 -3 -3 -3 -3 -3 -4 -8 -14
-2 -8 -16 -22 -24 -24 -23 -21 -19 -18 -17 -17 -17 -16 -16 -16 -15 -14 -11 -8 -6 -5 -4 -3 -3 -4 -4 -4 -4 -4 -4 -4 -4 -4 -4 -4 -4 -3 -3 -4 -4 -4 -7 -15

GFSNGP_850_dewp_081.txt.gz
Dewpoint
1 2 2 2 3 5 4 3 2 1 -0 -3 -2 -1 -0 2 4 4 3 3 3 3 3 3 2 2 1 1 0 0 0 1 1 1 2 2 2 2 2 2 2 2 2 2
1 1 1 2 2 4 4 3 2 0 1 -3 -3 -2 -1 0 3 3 3 3 3 3 3 3 2 1 1 1 0 0 1 1 1 1 1 2 2 2 2 2 3 2 2 2
-0 1 1 1 1 2 2 0 1 2 -0 -4 -2 -3 -2 -0 1 2 2 2 2 2 2 2 2 1 1 1 0 1 1 1 1 1 1 2 2 2 2 2 1 1 1 0
2 1 2 -4 -1 -0 1 1 -0 -1 -2 -3 -3 -3 -3 -2 -1 -1 -1 0 1 2 2 2 2 1 1 0 0 0 0 0 0 1 1 2 2 1 1 0 -0 -1 -1 -1
2 2 -1 -1 0 1 2 1 -0 -0 -2 -1 -1 -2 -2 -4 -4 -3 -3 -1 0 2 2 2 1 1 0 0 0 0 0 0 0 1 1 1 1 0 -1 -1 -1 -1 -1 -2
1 2 3 -0 0 -1 -1 3 0 -1 -1 0 1 1 0 -1 0 0 1 2 3 3 2 1 1 0 0 0 0 0 -0 0 0 0 1 1 -0 -1 -1 -1 -2 -2 -7 -16
2 1 1 -3 1 -0 4 1 0 -1 -1 -0 2 -1 -1 -0 1 1 1 1 2 2 1 1 0 -0 -0 0 0 0 -0 -0 0 0 0 -0 -1 -1 -2 -2 -5 -17 -21 -23
1 3 1 -1 -0 2 1 2 1 -0 -1 -1 1 2 2 2 3 2 2 2 1 1 1 0 -0 -0 -0 0 0 -0 -0 -0 -0 -0 -1 -1 -2 -2 -2 -8 -18 -19 -21 -24
-1 -1 -5 -2 -1 -1 2 2 2 2 2 2 2 2 2 2 2 2 2 1 1 0 -0 -0 -1 -1 -0 -0 -0 -1 -1 -0 -0 -1 -1 -2 -2 -2 -11 -16 -18 -21 -24 -26
-1 -2 -3 -2 -1 2 2 2 2 1 2 2 2 2 1 1 1 1 1 1 1 0 0 -0 -1 -1 -0 -1 -1 -1 -1 -0 -1 -1 -2 -2 -2 -9 -17 -20 -22 -23 -25 -27
-0 -2 -2 -2 -1 0 0 1 2 2 2 2 3 3 3 3 2 1 1 1 1 1 0 -0 -1 -1 -1 -1 -2 -1 -1 -0 -1 -2 -2 -2 -8 -16 -19 -20 -21 -23 -26 -28
1 -1 -2 -2 -1 1 1 2 2 1 1 1 1 1 1 1 2 2 1 1 1 1 1 -0 -1 -1 -1 -2 -2 -2 -1 -1 -2 -2 -2 -5 -13 -17 -19 -20 -22 -25 -27 -30
-1 -2 0 1 1 2 1 1 1 0 0 -0 0 1 1 2 2 2 2 1 2 2 1 -0 -1 -1 -1 -1 -2 -1 -1 -1 -2 -2 -3 -11 -15 -17 -19 -21 -23 -24 -26 -31
-2 -0 1 1 1 2 1 1 0 0 0 0 0 1 1 1 2 2 2 2 2 2 1 0 -1 -1 -1 -1 -2 -1 -1 -1 -2 -2 -4 -14 -15 -16 -19 -21 -22 -23 -25 -29
-1 0 -1 -0 1 1 1 1 1 1 0 0 0 0 1 1 1 2 2 2 2 2 2 1 -0 -1 -1 -1 -1 -1 -1 -1 -1 -2 -6 -15 -15 -15 -17 -19 -21 -21 -22 -26
-0 1 0 1 1 1 1 1 0 0 -0 -0 -0 0 0 0 1 1 2 2 2 2 2 2 1 -0 -1 -1 -1 -1 -1 -1 -1 -2 -6 -15 -16 -15 -16 -17 -19 -20 -22 -23
0 0 0 0 0 0 0 0 0 -0 -0 -1 -1 -1 -1 -0 0 0 1 1 1 1 2 2 1 1 -0 -1 -1 -1 -1 -1 -1 -2 -4 -12 -16 -16 -16 -16 -17 -19 -21 -22
0 0 0 0 0 -0 -0 -0 -1 -1 -1 -1 -1 -1 -1 -1 -0 0 0 1 0 1 1 1 1 1 1 -0 -1 -1 -1 -1 -1 -1 -3 -8 -15 -17 -17 -16 -16 -16 -19 -22
-0 -0 -0 -1 -1 -1 -1 -1 -1 -1 -1 -1 -1 -1 -1 -1 -1 -0 -0 -0 0 1 0 1 1 1 1 1 0 -1 -1 -0 -0 -1 -2 -3 -10 -16 -17 -17 -17 -16 -16 -19
-1 -1 -2 -2 -1 -1 -1 -1 -2 -1 -2 -2 -2 -2 -1 -1 -1 -1 -1 -1 -1 -0 0 1 1 1 1 1 1 0 -0 -0 -0 -0 -0 -1 -2 -7 -15 -17 -18 -18 -17 -16
-2 -2 -4 -7 -9 -9 -9 -8 -7 -6 -3 -2 -2 -2 -2 -2 -2 -1 -1 -1 -0 0 1 1 0 1 1 1 0 0 0 0 -0 -0 -0 -0 -1 -2 -6 -13 -15 -16 -18 -17
-1 -2 -1 -4 -14 -19 -18 -18 -19 -17 -12 -7 -3 -2 -2 -2 -2 -2 -2 -2 -1 -1 -1 -0 -0 -0 0 0 0 0 -0 -0 -0 -0 -1 -1 -1 -1 -1 -6 -5 -5 -14 -17
-1 -4 -10 -15 -19 -21 -21 -21 -21 -20 -18 -14 -11 -8 -5 -3 -3 -2 -2 -2 -2 -2 -2 -2 -2 -1 -1 -1 -0 -0 -0 -0 -1 -1 -1 -1 -1 -1 -1 -1 -1 -2 -3 -12
-9 -11 -14 -17 -21 -21 -22 -21 -20 -19 -17 -17 -18 -18 -15 -12 -8 -4 -3 -3 -3 -3 -3 -3 -2 -2 -2 -2 -2 -1 -1 -1 -1 -2 -2 -2 -2 -2 -2 -2 -2 -2 -2 -3
-10 -11 -12 -17 -19 -22 -24 -24 -21 -19 -18 -17 -17 -17 -16 -16 -13 -11 -7 -5 -4 -3 -3 -3 -3 -3 -3 -3 -3 -3 -3 -3 -3 -3 -3 -3 -3 -3 -3 -3 -2 -2 -3 -3
-4 -6 -8 -14 -18 -21 -24 -24 -23 -21 -19 -19 -18 -17 -17 -16 -16 -15 -15 -12 -9 -6 -6 -4 -3 -3 -3 -3 -3 -4 -4 -4 -4 -4 -4 -4 -4 -4 -4 -4 -3 -3 -3 -3
-2 -2 -4 -10 -17 -22 -23 -23 -23 -21 -20 -19 -19 -17 -17 -17 -16 -15 -15 -15 -15 -14 -11 -7 -6 -4 -4 -4 -4 -4 -4 -4 -5 -5 -5 -5 -5 -4 -4 -4 -3 -3 -3 -4

GFSNGP_850_dewp_084.txt.gz
Dewpoint
1 1 3 3 4 4 3 2 2 1 1 -1 -3 -4 -1 2 3 3 4 4 4 3 3 3 3 2 1 1 1 1 0 0 0 1 1 1 1 2 2 2 2 1 1 1
1 1 2 3 2 4 3 2 2 1 1 -3 -3 -3 -1 1 3 4 4 4 3 3 3 3 3 2 2 1 1 1 0 1 1 1 1 1 2 2 2 2 2 2 2 2
-0 1 1 0 1 3 3 2 3 4 1 -1 -3 -2 -2 0 3 4 3 3 3 3 3 3 3 2 2 1 1 1 1 1 1 0 0 1 2 2 2 2 2 2 1 1
2 0 1 -4 -1 -0 1 1 1 0 -2 -3 -3 -3 -3 -1 1 2 2 2 2 2 2 3 2 2 1 1 1 1 1 1 0 0 0 1 1 1 1 2 1 1 -0 -1
2 2 -1 -1 0 1 1 0 -0 0 -1 -2 -1 -2 -2 -3 -2 -1 -0 1 1 1 1 2 2 2 1 1 1 0 0 0 0 0 1 1 1 1 1 0 -1 -1 -1 -1
1 2 1 -2 1 -1 -1 2 -1 -1 -1 -2 0 1 -1 -2 -3 -3 -3 -2 -2 -0 1 2 2 2 1 1 0 0 0 0 -0 0 0 1 1 0 -1 -1 -1 -1 -2 -3
2 2 0 -3 -2 -0 3 0 1 -1 -1 -1 1 -1 -1 0 -0 -0 0 1 2 2 3 2 2 1 1 0 0 0 0 -0 -0 -0 0 1 0 -1 -1 -1 -1 -2 -10 -20
2 4 1 -4 -0 2 -0 2 2 1 -1 -1 1 1 2 2 2 2 2 2 1 2 1 1 1 0 0 -0 -0 0 0 -0 -0 -0 -0 -0 -1 -1 -1 -2 -4 -17 -21 -22
-0 0 -4 -4 -0 -0 1 2 2 2 2 -0 1 1 2 2 2 2 2 2 1 1 1 1 0 -0 -0 -0 -0 0 -0 -0 -0 -0 -0 -1 -1 -2 -2 -5 -18 -19 -21 -24
-1 -2 -3 -3 -1 -0 2 2 2 2 2 2 2 2 2 2 1 1 1 1 1 1 1 0 0 -0 -1 -0 -0 -0 -0 -1 -0 -0 -1 -1 -2 -2 -3 -15 -17 -20 -23 -25
-1 -2 -2 -2 -1 1 1 1 2 1 2 3 3 4 3 4 4 3 1 1 1 1 1 1 -0 -1 -1 -0 -1 -1 -1 -1 -1 -1 -1 -2 -2 -3 -11 -16 -19 -22 -24 -25
0 -2 -2 -2 -1 0 1 1 2 2 1 1 1 1 1 1 1 1 2 1 1 1 2 1 -0 -1 -1 -1 -1 -1 -1 -1 -1 -1 -1 -2 -2 -6 -16 -18 -20 -21 -23 -26
-2 -2 -1 0 0 1 2 1 1 1 0 0 0 0 1 1 1 2 2 2 1 1 1 1 0 -1 -1 -1 -1 -1 -2 -2 -1 -1 -1 -2 -3 -10 -17 -19 -20 -22 -24 -26
-1 -1 0 1 1 2 1 1 1 0 0 0 0 0 0 1 1 1 2 2 2 1 1 1 1 0 -1 -1 -1 -1 -1 -1 -1 -1 -2 -2 -4 -13 -16 -18 -19 -21 -23 -24
0 -0 0 -0 1 1 1 1 1 1 0 -0 -0 -0 -0 0 0 1 1 2 2 2 1 2 1 1 -0 -1 -1 -1 -1 -1 -1 -1 -2 -2 -6 -14 -15 -16 -19 -21 -21 -23
-0 0 1 0 1 1 1 1 1 0 -0 -0 -0 -0 -1 -1 -1 -0 0 1 1 2 2 2 2 1 0 -1 -1 -1 -1 -1 -1 -2 -1 -2 -6 -14 -15 -15 -17 -19 -20 -21
0 0 0 1 1 0 0 0 0 0 -0 -0 -1 -1 -1 -1 -2 -1 -1 -0 0 1 1 1 1 1 1 0 -1 -0 -1 -1 -1 -1 -1 -2 -4 -12 -16 -15 -15 -16 -18 -19
0 0 0 0 0 0 -0 -0 -0 -1 -1 -1 -1 -1 -1 -1 -1 -1 -1 -0 -0 0 1 1 1 1 1 1 1 -0 -1 -1 -1 -1 -1 -2 -2 -5 -12 -16 -16 -16 -16 -16
-0 -0 -0 -0 -1 -1 -1 -1 -1 -2 -2 -2 -2 -2 -2 -2 -2 -2 -1 -1 -1 -0 -0 0 1 1 1 1 1 1 -0 -1 -1 -0 -1 -1 -1 -2 -5 -11 -16 -17 -17 -16
-1 -1 -1 -2 -2 -1 -2 -2 -2 -3 -3 -2 -2 -2 -2 -2 -2 -2 -2 -1 -1 -1 -0 -0 0 1 1 1 1 1 1 0 0 -1 -0 -0 -1 -1 -2 -4 -9 -15 -17 -17
-2 -3 -6 -10 -13 -14 -14 -15 -17 -18 -15 -12 -9 -6 -3 -2 -2 -2 -2 -1 -1 -1 -1 -0 -0 0 0 1 0 0 1 0 0 -0 -1 -0 -0 -0 -0 -1 -1 -5 -12 -16
-2 -2 -2 -2 -7 -19 -20 -20 -21 -20 -19 -18 -16 -13 -11 -8 -5 -3 -3 -2 -2 -2 -2 -2 -1 -1 -1 -1 -0 -0 -0 -0 -0 -0 -0 -0 -0 -0 -0 -0 -1 -1 -1 -7
-2 -2 -6 -15 -18 -21 -21 -22 -22 -21 -20 -19 -18 -19 -18 -16 -11 -9 -6 -5 -3 -3 -3 -3 -2 -2 -2 -2 -2 -1 -1 -1 -1 -1 -1 -1 -1 -1 -1 -1 -1 -1 -1 -1
-9 -9 -12 -14 -17 -18 -21 -23 -24 -23 -20 -19 -18 -18 -18 -18 -17 -12 -11 -9 -7 -6 -4 -3 -3 -3 -3 -3 -3 -3 -2 -2 -2 -2 -2 -2 -2 -2 -2 -2 -2 -2 -2 -2
-5 -9 -9 -10 -12 -15 -18 -21 -23 -23 -22 -19 -18 -17 -16 -16 -16 -17 -16 -16 -15 -15 -12 -8 -6 -4 -3 -4 -4 -4 -4 -3 -3 -3 -3 -3 -3 -3 -3 -3 -3 -3 -3 -3
-3 -2 -2 -3 -6 -11 -15 -19 -23 -24 -24 -22 -20 -19 -18 -17 -17 -16 -16 -16 -16 -15 -15 -15 -13 -8 -6 -4 -4 -4 -4 -4 -4 -4 -4 -4 -4 -4 -4 -4 -4 -4 -4 -4
-4 -3 -3 -3 -6 -11 -14 -21 -24 -24 -23 -22 -22 -20 -18 -18 -17 -16 -16 -16 -16 -15 -15 -15 -15 -15 -14 -9 -6 -5 -5 -5 -5 -5 -5 -5 -5 -5 -5 -5 -5 -5 -5 -5

GFSNGP_850_dewp_087.txt.gz
Dewpoint
1 1 3 3 4 3 1 1 2 1 1 -1 -2 -2 -4 -2 2 3 3 3 3 3 3 3 3 3 2 1 1 1 1 0 0 0 0 0 1 1 1 1 1 1 1 1
1 2 2 3 3 3 3 2 2 2 2 -2 -3 -3 -2 -1 3 3 3 3 3 4 4 3 3 3 2 1 1 1 1 1 1 1 1 1 1 1 1 2 2 2 2 2
1 1 0 -0 0 2 3 2 2 3 1 -2 -2 -2 -3 -2 2 3 2 3 3 3 3 3 3 3 2 2 1 1 1 1 1 1 1 0 0 1 1 2 2 2 2 2
3 0 1 -5 -2 -1 2 1 2 2 0 -1 -1 -2 -3 -3 -2 1 3 3 3 3 3 3 3 3 2 2 1 1 1 1 1 1 0 0 1 1 1 1 2 2 1 1
2 2 -1 -1 -0 0 1 -0 -1 1 1 -1 -2 -2 -2 -3 -4 -1 2 2 3 3 3 3 3 3 2 2 1 1 1 1 0 0 0 0 1 1 1 1 1 1 -0 -1
1 2 1 -3 1 -1 -1 2 -1 -1 -1 -1 -1 1 -0 -2 -3 -3 -1 -1 0 1 1 1 2 2 2 2 1 1 1 0 0 0 0 0 1 0 -0 -1 -1 -1 -1 -1
1 1 0 -3 -3 -1 2 1 1 0 -1 -1 -0 -1 -1 0 -1 -2 -2 -1 -1 -2 -1 1 2 2 2 1 1 1 0 0 0 -0 -0 0 0 -0 -1 -2 -2 -2 -2 -3
2 2 1 -5 -0 2 -0 2 2 2 -1 -1 1 1 1 1 1 1 1 1 1 1 2 2 2 2 1 1 0 -0 -0 0 -0 -0 -0 0 -0 -1 -2 -2 -2 -2 -6 -17
-0 -0 -4 -4 -0 -0 1 2 2 2 1 -1 1 1 2 2 2 2 2 2 2 2 1 1 1 1 1 0 -0 -0 0 0 -0 -0 -0 -0 -1 -1 -2 -2 -2 -6 -18 -20
-1 -3 -3 -2 -2 -2 1 2 2 2 2 2 2 3 3 3 3 2 1 1 1 1 1 1 1 0 0 -0 -0 -0 -0 0 -0 -0 -0 -0 -1 -1 -1 -2 -5 -17 -19 -22
-1 -2 -2 -2 -2 -0 2 1 1 1 2 3 3 3 3 3 4 4 4 2 1 1 1 1 1 0 -0 -1 -0 -0 -0 -0 -1 -1 -1 -1 -1 -1 -2 -3 -14 -17 -20 -22
-0 -2 -2 -1 0 -0 1 1 2 2 1 1 1 1 1 1 1 1 1 2 1 1 1 1 2 1 -0 -1 -1 -1 -1 -1 -1 -1 -1 -1 -2 -2 -3 -9 -14 -18 -21 -23
-2 -2 -2 -1 1 1 2 2 1 1 0 0 0 0 0 0 1 1 2 2 2 1 1 1 1 1 1 -1 -1 -1 -1 -1 -1 -1 -1 -1 -1 -2 -3 -13 -17 -19 -21 -23
-1 -0 -0 1 1 2 1 1 1 0 0 0 0 -0 -0 -0 -0 0 1 1 2 2 1 1 1 1 1 0 -1 -1 -1 -1 -1 -1 -1 -1 -1 -2 -3 -13 -18 -20 -21 -23
-0 0 0 0 1 1 1 1 1 1 0 -0 -0 -0 -0 -1 -1 -1 -1 0 1 2 2 1 1 2 1 -0 -0 -1 -1 -1 -1 -1 -1 -1 -1 -2 -4 -12 -17 -18 -19 -21
0 0 0 1 1 1 1 1 1 0 0 -0 -0 -0 -1 -1 -1 -2 -2 -2 -1 0 1 2 1 2 2 1 0 -1 -1 -1 -1 -1 -1 -1 -2 -2 -4 -12 -15 -16 -18 -20
0 0 0 1 1 1 0 0 0 -0 -0 -0 -1 -1 -1 -1 -1 -1 -1 -1 -1 -0 0 1 1 1 1 1 1 0 -1 -0 -1 -1 -1 -1 -2 -2 -3 -10 -15 -15 -16 -18
0 0 0 0 0 0 0 -0 -0 -1 -1 -2 -2 -2 -2 -2 -2 -2 -2 -2 -1 -1 -1 -0 0 1 1 1 1 1 0 -0 -1 -0 -0 -1 -1 -1 -2 -4 -12 -15 -16 -16
-0 -0 -0 -0 -1 -1 -1 -1 -2 -2 -2 -3 -2 -2 -2 -2 -2 -2 -2 -2 -2 -1 -1 -1 -0 0 1 1 1 1 1 0 0 -0 -0 -0 -1 -1 -1 -2 -3 -9 -15 -16
-1 -1 -1 -2 -2 -2 -4 -5 -8 -12 -15 -15 -14 -12 -8 -4 -2 -2 -2 -2 -2 -2 -1 -1 -1 -0 0 1 0 0 1 1 0 -0 -0 -0 -0 -1 -1 -1 -1 -2 -4 -9
-2 -2 -3 -8 -14 -16 -18 -19 -21 -22 -21 -20 -19 -19 -16 -12 -9 -6 -4 -2 -2 -2 -2 -2 -1 -1 -0 -0 -0 -0 -0 -0 -0 -0 -0 -0 -0 -1 -1 -1 -1 -1 -1 -1
-3 -3 -2 -2 -5 -13 -21 -21 -23 -23 -22 -21 -20 -19 -19 -19 -19 -15 -9 -6 -6 -4 -3 -3 -2 -2 -2 -2 -1 -1 -1 -1 -1 -1 -1 -1 -1 -1 -1 -1 -1 -1 -1 -1
-3 -3 -5 -12 -17 -19 -19 -22 -24 -24 -24 -22 -21 -20 -19 -18 -17 -17 -18 -16 -16 -14 -11 -7 -5 -3 -3 -3 -3 -2 -2 -2 -2 -2 -2 -2 -2 -2 -2 -2 -1 -1 -1 -1
-2 -3 -5 -6 -6 -8 -15 -19 -21 -22 -24 -23 -22 -20 -20 -19 -17 -17 -17 -17 -17 -17 -17 -16 -15 -10 -7 -4 -3 -3 -3 -3 -3 -3 -3 -3 -3 -3 -3 -3 -2 -2 -2 -2
-2 -2 -4 -5 -5 -6 -11 -14 -16 -20 -22 -23 -22 -21 -20 -19 -19 -19 -18 -18 -17 -17 -16 -16 -16 -16 -15 -11 -7 -5 -4 -4 -4 -4 -4 -4 -4 -4 -4 -4 -4 -4 -4 -3
-3 -5 -4 -2 -3 -4 -8 -11 -12 -19 -23 -23 -23 -21 -21 -20 -19 -18 -18 -17 -16 -16 -16 -15 -15 -16 -16 -15 -15 -12 -7 -5 -5 -5 -5 -5 -5 -5 -5 -5 -5 -5 -5 -5
-4 -5 -5 -3 -3 -5 -9 -9 -14 -23 -22 -21 -20 -20 -20 -19 -18 -18 -16 -16 -15 -15 -15 -15 -15 -14 -15 -15 -14 -15 -15 -12 -7 -5 -5 -5 -5 -5 -5 -5 -5 -5 -5 -5

GFSNGP_850_dewp_090.txt.gz
Dewpoint
2 2 2 3 4 3 4 3 6 1 1 -2 -3 -3 -3 -2 1 2 3 4 4 3 3 3 2 3 3 2 2 1 1 1 1 0 0 0 -0 -0 0 1 1 1 1 1
3 2 2 3 3 3 3 2 2 1 1 -3 -3 -3 -3 -2 1 2 3 4 4 3 3 3 3 3 2 2 1 1 1 1 1 1 1 1 0 0 1 1 1 1 2 1
4 1 0 1 -1 2 3 2 2 4 0 -2 -2 -2 -2 -2 -0 2 2 3 3 2 3 3 3 2 3 2 2 1 1 1 1 1 1 1 0 0 1 1 1 1 1 1
2 0 -0 -3 -2 -1 1 1 1 1 0 -1 -1 -1 -1 -2 -2 0 3 3 3 3 3 3 3 3 3 2 2 1 1 1 1 1 1 1 0 0 1 1 1 1 2 2
2 0 -1 1 1 0 0 1 -1 0 -0 -0 -0 -1 -1 -1 -2 -2 2 3 3 3 3 3 3 3 3 3 2 1 1 1 1 1 1 0 0 0 1 1 1 1 1 1
2 2 -1 0 -0 -1 -1 4 0 0 -0 -1 -1 1 -2 -2 -2 -3 -2 2 3 3 3 3 3 3 3 3 2 2 1 1 1 0 0 0 0 0 0 0 -0 -0 -1 -1
1 1 -1 -3 -1 -1 3 3 1 2 -0 -1 -0 -1 -0 0 -1 -1 -1 -1 -1 -1 -0 1 2 2 2 3 2 2 1 1 0 0 0 -0 -0 0 0 -0 -1 -2 -2 -2
1 1 1 -4 0 2 0 1 2 2 -1 -0 0 1 1 1 0 0 0 0 0 0 -0 -0 1 2 2 2 2 1 1 0 -0 0 0 -0 -0 0 -0 -1 -1 -2 -2 -2
-1 -2 -4 -4 -0 -0 -0 1 2 3 0 -0 1 1 2 2 2 2 2 2 2 2 2 2 2 2 2 2 1 0 0 -0 -0 -0 -0 -0 -0 -0 -1 -1 -2 -2 -2 -6
-1 -2 -3 -2 -2 -2 -0 2 2 2 2 2 2 2 2 3 3 3 2 1 1 1 1 1 1 1 1 1 0 -0 -0 -0 -0 0 -0 -0 -0 -0 -1 -1 -2 -2 -3 -15
-1 -2 -2 -1 -1 -1 1 2 1 2 2 3 3 3 3 2 2 3 3 3 2 1 1 1 1 1 1 0 -0 -0 -0 -0 -0 -0 -0 -0 -0 -1 -1 -1 -2 -2 -8 -18
-1 -2 -1 -2 -0 -0 1 1 2 2 1 1 1 1 1 1 1 1 1 1 1 2 2 1 1 1 1 0 -0 -1 -0 -0 -0 -0 -1 -1 -1 -1 -2 -2 -2 -4 -16 -17
-1 -1 -1 -1 0 1 1 2 1 1 0 0 0 0 0 0 0 0 1 1 2 2 1 1 1 1 1 1 1 -1 -1 -1 -1 -1 -1 -1 -1 -1 -2 -2 -3 -12 -15 -18
-2 -0 -0 1 1 1 2 1 1 0 0 0 -0 -0 -0 -0 -1 -1 -1 -1 0 1 2 1 1 1 1 1 0 0 -0 -1 -1 -1 -1 -1 -1 -1 -2 -2 -3 -12 -16 -20
-1 -0 0 0 1 1 1 1 1 0 0 0 -0 -0 -0 -1 -1 -2 -2 -2 -2 -1 0 1 1 1 2 2 1 -0 -0 -0 -0 -1 -2 -1 -1 -2 -2 -2 -3 -10 -16 -19
0 0 0 1 1 1 1 1 1 0 0 -0 -0 -0 -0 -1 -1 -1 -2 -2 -2 -2 -1 -0 1 1 1 2 2 1 -0 -1 -1 -1 -1 -2 -2 -2 -2 -2 -2 -7 -15 -18
-0 0 0 1 1 1 1 0 0 -0 -0 -0 -1 -1 -2 -2 -2 -2 -2 -2 -2 -2 -1 -1 -0 1 1 1 1 1 1 0 -0 -0 -0 -1 -2 -2 -1 -1 -2 -4 -13 -16
-0 0 0 0 0 0 0 -0 -0 -1 -2 -2 -2 -2 -2 -2 -2 -2 -2 -2 -2 -2 -2 -1 -1 -1 0 1 1 1 1 1 0 -0 -0 -1 -1 -1 -1 -1 -2 -2 -8 -14
-1 -1 -0 0 0 -0 -1 -1 -2 -2 -3 -7 -10 -10 -9 -6 -3 -2 -2 -2 -2 -2 -2 -1 -1 -0 -0 0 0 1 1 1 0 -0 -0 -0 -1 -1 -1 -1 -1 -1 -2 -6
-2 -2 -2 -2 -1 -1 -4 -7 -12 -16 -19 -19 -20 -18 -17 -16 -14 -12 -6 -3 -2 -2 -2 -2 -1 -1 -1 -1 -0 -0 -0 0 0 -0 -0 -1 -0 -1 -1 -1 -1 -1 -1 -1
-3 -3 -2 -6 -11 -14 -17 -20 -21 -22 -22 -22 -22 -21 -21 -20 -19 -19 -15 -10 -6 -5 -4 -3 -3 -2 -2 -1 -1 -1 -1 -1 -1 -1 -1 -1 -1 -1 -1 -1 -1 -1 -1 -1
-3 -3 -3 -3 -3 -5 -8 -20 -22 -23 -23 -22 -21 -21 -20 -19 -19 -19 -17 -16 -17 -17 -17 -14 -9 -6 -4 -3 -2 -2 -2 -2 -2 -2 -2 -2 -2 -2 -2 -2 -2 -1 -1 -1
-3 -3 -3 -10 -14 -13 -9 -11 -17 -18 -20 -21 -22 -22 -21 -20 -20 -19 -19 -18 -19 -18 -18 -18 -18 -17 -15 -12 -6 -4 -3 -3 -3 -3 -3 -3 -3 -3 -3 -3 -2 -2 -2 -2
-2 -2 -2 -4 -8 -9 -10 -13 -15 -15 -17 -19 -22 -22 -22 -21 -21 -20 -20 -19 -18 -17 -17 -17 -17 -17 -17 -17 -16 -12 -8 -5 -4 -4 -4 -4 -4 -4 -4 -4 -4 -3 -3 -3
-2 -2 -2 -3 -5 -5 -6 -9 -11 -12 -14 -20 -23 -23 -22 -22 -20 -20 -19 -19 -18 -17 -17 -17 -17 -16 -16 -16 -16 -16 -16 -13 -8 -5 -4 -4 -4 -5 -5 -4 -4 -4 -4 -4
-4 -3 -4 -5 -4 -3 -4 -8 -9 -10 -19 -23 -22 -21 -20 -20 -20 -19 -19 -18 -17 -16 -16 -16 -16 -16 -15 -15 -15 -15 -15 -15 -15 -13 -8 -5 -5 -5 -5 -5 -5 -5 -5 -5
-13 -8 -5 -5 -5 -3 -4 -7 -9 -11 -19 -19 -18 -18 -18 -18 -18 -18 -17 -17 -16 -16 -15 -14 -14 -14 -14 -14 -14 -14 -14 -14 -14 -14 -14 -13 -9 -6 -6 -6 -6 -6 -6 -6

GFSNGP_850_dewp_093.txt.gz
Dewpoint
1 1 2 4 4 3 5 3 5 1 0 -3 -4 -3 -4 -3 -1 1 2 3 3 3 3 3 3 3 2 1 1 2 2 1 1 1 0 0 0 0 -0 -0 -0 0 0 1
3 2 2 3 2 3 2 2 1 1 1 -2 -3 -3 -3 -3 -1 0 2 3 3 3 3 3 3 3 2 2 2 2 1 1 1 1 0 0 1 0 0 0 0 0 1 1
4 1 1 3 2 2 2 1 2 4 1 -2 -2 -3 -2 -2 -1 -0 1 3 3 3 3 3 3 3 2 2 2 1 1 1 1 1 1 1 1 1 0 0 0 0 1 1
0 -1 1 -2 -3 -1 1 -0 -0 0 -0 -1 -2 -1 -1 -1 -2 -2 1 2 3 3 3 3 3 3 2 2 2 2 1 1 1 1 1 1 1 1 0 0 0 1 1 1
2 -1 -1 1 0 -0 1 1 -0 0 -0 -1 -1 -1 -1 -1 -1 -1 -1 2 2 3 4 4 3 3 3 2 2 2 2 2 1 1 1 1 1 1 0 0 1 1 1 1
1 2 -1 0 -1 -1 -1 3 1 1 0 -0 -0 2 0 0 -1 -1 -2 3 3 3 4 4 3 3 3 3 2 2 2 2 1 1 1 1 0 0 0 0 1 1 0 -0
0 1 -2 -3 -1 -1 4 6 2 2 0 -1 -0 0 1 0 0 -1 -2 0 3 4 4 4 3 3 3 3 2 2 2 2 1 1 1 0 0 0 -0 0 0 0 -0 -1
0 1 1 -3 0 2 1 1 2 2 -0 -0 1 1 1 1 1 0 0 0 -0 -1 -1 -0 1 2 3 3 2 2 2 1 1 1 0 0 0 -0 -0 0 0 -1 -1 -2
-1 -1 -3 -4 -3 -2 -0 0 2 3 1 1 1 2 2 1 1 1 2 2 2 1 1 1 1 1 2 2 2 2 2 1 1 0 -0 -0 0 -0 -0 -0 -0 -1 -2 -2
-1 -2 -3 -2 -2 -1 -1 2 2 3 2 2 2 2 2 2 2 2 2 1 1 1 1 1 1 2 2 2 1 1 1 0 0 -0 -0 0 -0 -0 -0 0 -0 -1 -2 -2
-2 -2 -2 -1 0 -0 1 2 2 2 3 3 3 3 2 2 2 2 2 2 2 2 1 1 1 1 1 1 1 0 -0 -0 -0 -0 -0 -0 -0 -0 0 -0 -1 -1 -2 -2
3 -2 -1 -2 -1 1 2 2 2 2 2 1 2 1 2 1 1 1 1 1 1 1 1 2 2 2 1 1 1 0 0 -0 -0 -0 -0 -0 -0 -0 -0 -1 -2 -2 -3 -2
-1 -2 -1 -1 0 1 2 2 2 1 1 0 0 0 0 -0 -0 -0 -0 -0 0 1 1 2 1 1 1 1 1 1 1 -0 -1 -1 -0 -0 -1 -0 -1 -1 -2 -2 -3 -3
-1 -0 -1 1 1 1 2 1 1 1 1 0 -0 -0 -0 -0 -1 -1 -2 -2 -2 -2 -1 0 1 1 1 1 1 1 1 0 -0 -0 -0 -1 -1 -1 -1 -2 -2 -2 -2 -4
-0 -0 0 1 1 1 1 1 1 0 0 0 -0 -0 -1 -1 -1 -1 -1 -1 -2 -2 -2 -1 -0 1 1 1 2 2 1 0 0 -0 -0 -1 -2 -2 -2 -2 -2 -2 -2 -5
-1 -1 0 1 1 1 1 1 1 1 0 0 -0 -0 -0 -1 -1 -1 -2 -2 -2 -2 -2 -2 -1 -1 1 1 1 2 2 1 1 -0 -0 -1 -1 -2 -2 -2 -2 -2 -2 -2
-1 -0 0 1 1 1 0 0 0 0 -0 -0 -1 -2 -2 -2 -2 -2 -2 -2 -2 -2 -2 -2 -1 -1 -1 0 1 1 1 1 0 0 0 -0 -1 -1 -2 -2 -2 -2 -1 -1
-1 -1 -1 0 0 0 1 0 -0 -0 -1 -2 -2 -2 -3 -4 -4 -3 -2 -2 -2 -2 -2 -2 -2 -1 -1 -1 0 1 1 1 0 0 0 -0 -0 -1 -1 -2 -2 -2 -1 -1
-2 -1 -1 -1 -0 -1 -1 -1 -1 -2 -3 -7 -12 -15 -16 -15 -15 -13 -9 -5 -2 -2 -2 -2 -2 -1 -1 -1 -1 -0 0 0 0 -0 -0 -0 -0 -1 -1 -1 -1 -2 -2 -2
-3 -2 -2 -2 -2 -2 -2 -2 -5 -12 -18 -20 -21 -21 -20 -20 -20 -20 -18 -13 -9 -4 -4 -4 -3 -2 -2 -2 -1 -1 -1 -0 -0 -0 -0 -0 -0 -0 -1 -1 -1 -1 -2 -2
-3 -3 -3 -3 -3 -6 -14 -17 -19 -19 -19 -22 -22 -21 -21 -21 -20 -20 -19 -16 -14 -17 -18 -17 -13 -8 -5 -3 -2 -2 -2 -1 -1 -1 -1 -1 -1 -1 -1 -1 -1 -1 -2 -2
-3 -3 -3 -3 -3 -3 -3 -6 -18 -21 -21 -20 -20 -20 -21 -21 -21 -20 -20 -19 -19 -20 -19 -19 -19 -18 -19 -17 -14 -8 -4 -3 -2 -2 -2 -2 -3 -3 -2 -2 -2 -2 -2 -2
-3 -3 -3 -3 -3 -4 -5 -5 -3 -7 -13 -17 -18 -19 -21 -22 -21 -21 -19 -20 -20 -20 -19 -19 -19 -19 -18 -18 -17 -17 -16 -12 -7 -4 -4 -3 -3 -4 -4 -4 -4 -3 -3 -3
-2 -2 -3 -3 -3 -3 -5 -11 -13 -14 -13 -13 -15 -19 -21 -22 -22 -21 -20 -20 -20 -19 -19 -18 -17 -17 -17 -17 -17 -16 -17 -17 -16 -14 -10 -6 -4 -4 -4 -4 -4 -4 -4 -4
-3 -2 -3 -3 -3 -2 -4 -5 -7 -10 -10 -11 -19 -22 -23 -21 -21 -20 -20 -20 -19 -19 -18 -17 -17 -16 -16 -16 -16 -16 -15 -15 -15 -15 -15 -15 -13 -8 -5 -5 -5 -5 -5 -5
-9 -6 -5 -3 -3 -5 -4 -3 -5 -9 -9 -11 -20 -19 -18 -17 -17 -16 -15 -15 -15 -16 -17 -17 -17 -16 -15 -14 -14 -14 -14 -14 -14 -14 -14 -14 -14 -14 -13 -9 -7 -6 -6 -6
-13 -13 -13 -10 -6 -5 -5 -4 -4 -6 -9 -11 -19 -18 -17 -17 -16 -16 -15 -14 -13 -12 -13 -14 -15 -14 -14 -14 -14 -14 -14 -14 -14 -13 -13 -13 -13 -13 -13 -14 -13 -10 -7 -6

GFSNGP_850_dewp_096.txt.gz
Dewpoint
2 2 3 4 4 4 4 4 5 2 1 -1 -2 -3 -4 -3 -1 1 3 3 2 3 3 3 4 4 3 2 1 1 1 1 1 1 1 0 0 -0 -0 0 -0 -0 -0 -1
3 1 2 4 4 3 3 3 2 1 2 -2 -3 -3 -2 -3 -1 0 2 3 3 3 3 3 3 3 3 2 2 2 2 1 1 1 1 0 0 0 0 0 0 0 0 -0
6 1 1 4 3 3 2 1 2 4 1 -1 -1 -1 -2 -1 -1 -1 1 3 3 3 3 3 3 3 2 2 2 2 1 1 1 1 1 1 1 1 1 1 1 0 0 0
2 0 3 -1 -3 -1 1 0 -0 -0 -0 -1 -1 -1 -1 -1 -1 -2 0 2 3 3 3 3 3 2 2 2 2 2 1 1 1 1 1 1 1 1 1 1 0 0 0 0
3 0 -0 1 -0 -0 1 2 0 0 0 -0 -1 -0 0 -0 -1 -1 -2 1 2 3 3 3 3 3 2 2 2 2 2 2 1 1 1 1 1 1 1 1 0 0 0 0
2 3 1 1 -1 -1 -1 4 1 1 1 -0 -0 2 1 0 -1 -1 -2 2 2 3 3 4 3 3 2 2 2 2 2 2 2 2 1 1 1 1 1 0 0 0 0 0
2 2 -0 -2 -1 -1 4 5 2 2 -0 -1 1 1 1 0 0 -0 -1 2 3 4 4 4 4 3 3 3 2 2 2 2 2 2 1 1 1 1 0 0 0 0 0 0
1 2 2 -1 0 3 1 2 2 3 -0 0 2 2 2 1 1 1 1 0 2 4 4 4 4 3 3 3 3 2 2 2 2 1 1 1 1 0 0 0 -0 0 0 -0
-0 0 -3 -3 -3 -3 -2 -1 2 3 1 1 2 2 1 1 1 1 1 1 1 1 1 0 0 1 1 2 2 2 2 2 2 1 1 1 0 -0 0 -0 0 0 -0 -0
-1 -1 -2 -1 -1 -1 -1 2 2 2 2 2 2 2 3 3 3 3 2 2 1 1 1 1 1 2 2 2 2 2 2 1 1 0 0 -0 -0 -0 0 -0 -0 0 -0 -1
-1 -1 -0 -1 -1 1 1 2 2 2 3 3 3 2 2 2 1 1 1 1 2 2 1 1 1 1 1 1 1 1 1 0 0 -0 -0 -0 -0 -0 -0 -0 -0 -1 -1 -1
4 -1 -2 -2 -2 0 1 2 2 2 2 2 2 1 1 1 1 1 1 1 1 1 1 1 1 2 2 1 1 1 0 0 0 0 -0 -0 -0 -0 -0 -0 -0 -1 -2 -2
-2 -1 -2 -0 -0 1 2 2 2 2 1 0 0 0 0 -0 -0 -0 -1 -2 -2 -1 -1 -0 1 1 1 1 0 1 1 0 1 0 -0 -0 -1 -1 -1 -1 -1 -1 -2 -2
-1 -2 -0 0 0 0 1 1 1 1 1 2 2 1 -1 -1 -1 -1 -2 -2 -2 -2 -2 -2 -1 -0 1 1 1 1 1 1 1 1 0 0 0 -0 -1 -1 -2 -1 -2 -2
-1 -1 -1 0 0 1 1 1 1 1 0 0 -0 -0 -0 -0 -0 -1 -1 -1 -1 -2 -2 -2 -2 -2 -1 0 1 1 1 1 1 1 0 0 0 -0 -1 -2 -2 -2 -2 -2
-1 -1 0 1 1 1 1 1 1 0 0 0 -0 -0 -1 -1 -2 -2 -2 -2 -2 -2 -2 -2 -2 -2 -2 -1 -0 1 1 1 1 1 1 0 -0 -0 -1 -2 -2 -2 -2 -2
-1 -1 -1 -1 1 1 1 0 0 0 0 -0 -0 -1 -2 -2 -3 -3 -3 -3 -2 -2 -2 -2 -2 -2 -2 -1 -1 -0 0 0 0 0 1 0 -0 -1 -1 -1 -2 -2 -2 -2
-2 -2 -1 -1 -1 0 0 0 0 0 -0 -1 -2 -3 -5 -9 -11 -13 -12 -9 -4 -2 -2 -2 -2 -2 -2 -2 -1 -2 -1 -0 -0 -0 -0 -0 -0 -1 -1 -1 -1 -1 -2 -2
-2 -2 -2 -1 -1 -1 -1 -1 -1 -2 -3 -7 -12 -15 -17 -18 -18 -18 -19 -17 -15 -8 -4 -4 -4 -3 -2 -2 -2 -1 -1 -1 -1 -1 -1 -1 -1 -1 -1 -1 -1 -1 -1 -1
-3 -2 -2 -2 -2 -2 -2 -2 -2 -3 -5 -18 -20 -20 -20 -21 -20 -20 -20 -19 -17 -15 -18 -19 -18 -13 -7 -4 -3 -2 -2 -2 -1 -1 -1 -1 -1 -1 -1 -1 -1 -1 -1 -2
-3 -3 -3 -3 -3 -3 -4 -4 -10 -13 -5 -6 -15 -20 -20 -20 -20 -21 -20 -19 -17 -19 -19 -19 -19 -19 -19 -19 -19 -17 -11 -5 -3 -2 -2 -2 -2 -3 -3 -2 -2 -2 -2 -2
-3 -3 -3 -4 -4 -4 -4 -4 -4 -7 -9 -5 -5 -7 -15 -18 -20 -22 -21 -19 -20 -21 -20 -20 -20 -20 -19 -19 -19 -18 -18 -18 -16 -12 -7 -4 -4 -4 -4 -4 -4 -4 -4 -3
-2 -3 -3 -3 -3 -3 -3 -3 -3 -4 -8 -14 -15 -15 -16 -19 -22 -22 -22 -21 -21 -20 -20 -20 -19 -19 -18 -18 -18 -17 -17 -17 -17 -17 -17 -15 -13 -8 -6 -6 -5 -5 -5 -5
-2 -2 -2 -3 -3 -3 -3 -3 -3 -7 -10 -11 -10 -13 -19 -23 -23 -22 -21 -21 -20 -20 -19 -19 -18 -17 -17 -17 -16 -16 -16 -15 -16 -16 -16 -16 -16 -15 -14 -13 -9 -6 -6 -6
-7 -3 -3 -3 -3 -3 -3 -2 -3 -5 -8 -9 -9 -17 -22 -19 -18 -17 -16 -14 -13 -13 -12 -12 -13 -14 -15 -16 -15 -15 -14 -14 -14 -14 -13 -13 -14 -14 -14 -14 -14 -14 -11 -7
-10 -10 -9 -7 -5 -4 -3 -5 -5 -3 -5 -8 -9 -12 -19 -17 -16 -15 -16 -16 -15 -14 -13 -12 -12 -12 -13 -14 -14 -14 -14 -14 -14 -14 -14 -14 -13 -13 -14 -14 -14 -13 -14 -14
-13 -13 -13 -13 -13 -13 -8 -6 -6 -4 -4 -5 -7 -10 -15 -19 -19 -19 -20 -20 -19 -17 -14 -12 -12 -12 -14 -14 -14 -14 -14 -13 -13 -13 -13 -13 -13 -13 -13 -13 -14 -14 -14 -13

GFSNGP_850_dewp_099.txt.gz
Dewpoint
4 3 3 3 3 4 4 3 5 4 1 -0 -3 -3 -3 -2 1 2 2 2 2 2 2 3 3 3 3 3 3 2 2 2 1 1 0 -0 -1 0 0 -0 -0 -0 -0 -0
2 1 3 4 4 4 3 3 2 2 2 -1 -3 -2 -2 -2 -0 2 2 2 2 2 2 3 3 2 2 2 2 1 1 1 1 1 1 0 0 0 0 0 0 0 0 0
4 1 1 4 3 4 3 2 2 3 1 -1 -1 -1 -1 -1 -1 0 2 3 3 3 3 3 3 3 2 2 2 1 1 1 1 1 1 1 0 1 1 1 1 1 1 0
2 -0 3 -1 -3 -1 2 0 -0 -1 -1 -1 -1 -1 -0 -1 -1 -2 0 2 3 3 3 3 3 2 2 2 2 2 2 1 1 1 1 1 1 1 1 1 1 1 0 0
2 1 -0 1 -0 -0 1 2 0 1 1 0 -0 -0 0 0 -0 -1 -1 -0 3 3 3 3 3 2 2 2 2 2 2 1 1 1 1 1 1 1 1 1 1 1 1 0
2 2 2 1 -1 -1 -1 4 2 2 -0 -1 -0 2 1 0 -0 -1 -1 -0 2 3 3 3 3 3 3 2 2 2 2 2 2 1 1 1 1 1 1 1 1 1 0 0
2 2 0 -1 -1 -1 2 3 2 1 -0 0 1 1 1 1 0 -0 -1 2 3 3 3 3 3 3 3 2 2 2 2 2 2 2 2 2 2 1 1 1 0 0 0 0
1 2 1 -1 0 3 1 1 3 2 -0 2 2 2 1 1 1 1 0 0 4 4 4 4 4 4 3 3 2 2 2 2 2 2 2 2 1 1 0 0 0 0 -0 0
0 1 -3 -3 -3 -2 -2 -2 3 2 1 1 2 1 1 1 1 1 1 1 1 2 3 4 4 4 3 3 2 2 2 2 2 2 2 1 1 0 0 -0 0 0 0 0
-1 -0 -0 -0 -0 0 1 2 2 2 2 2 2 2 2 3 3 3 2 2 1 1 1 1 1 2 1 2 2 2 2 2 2 1 1 0 0 -0 -0 -0 0 -0 -0 -0
1 -0 -1 -2 -1 -1 1 2 2 2 3 3 3 2 2 2 1 1 1 1 1 2 1 1 1 1 1 1 1 1 1 1 1 0 0 0 0 -0 -0 -0 -0 -0 0 -0
2 0 1 -0 -1 -0 1 2 2 2 2 2 2 2 1 1 0 0 0 0 0 1 1 1 1 1 1 1 1 1 1 0 1 0 1 0 0 -0 -0 -0 -0 -0 -0 -0
-1 -1 -2 -1 1 0 1 2 2 2 1 1 1 0 0 -0 -0 -1 -1 -2 -2 -2 -2 -1 -1 -0 0 1 1 0 0 1 1 1 1 0 0 0 1 0 -1 -1 -1 -2
-1 -2 0 -1 -1 -1 0 1 1 1 1 2 3 3 2 0 -1 -1 -1 -1 -1 -1 -1 -2 -2 -2 -1 -1 0 1 0 0 0 1 1 1 1 0 0 0 -1 -1 -2 -2
-1 -1 -1 -1 0 1 1 1 1 1 1 0 0 -0 -0 -0 -0 -1 -1 -2 -2 -2 -2 -2 -2 -2 -2 -2 -2 -1 1 1 1 0 0 1 0 0 -0 -0 -1 -1 -2 -2
-1 -0 0 0 1 1 1 1 1 0 0 0 1 1 0 -1 -2 -2 -2 -3 -3 -3 -2 -2 -2 -2 -2 -2 -2 -1 -1 0 0 0 0 0 0 -0 -0 -1 -1 -1 -2 -2
-2 -2 -1 -1 -1 -0 0 0 0 0 0 0 1 -0 -2 -2 -3 -3 -6 -9 -6 -3 -2 -2 -2 -2 -2 -2 -2 -2 -2 -1 -0 -0 -0 -0 -0 -0 -1 -1 -1 -1 -1 -1
-2 -3 -2 -2 -1 -1 -0 0 -0 -0 -0 -0 -1 -3 -6 -11 -15 -17 -18 -18 -17 -11 -5 -3 -3 -3 -3 -2 -2 -2 -1 -1 -1 -1 -1 -1 -1 -1 -1 -1 -1 -1 -1 -1
-3 -3 -3 -2 -2 -1 -1 -1 -1 -1 -2 -2 -6 -14 -16 -19 -19 -20 -20 -20 -18 -13 -15 -18 -19 -17 -11 -6 -4 -3 -2 -2 -2 -1 -1 -1 -1 -1 -2 -2 -2 -1 -1 -1
-3 -3 -3 -3 -2 -2 -2 -2 -2 -3 -3 -7 -17 -18 -19 -19 -19 -19 -20 -20 -19 -18 -20 -21 -21 -20 -20 -20 -19 -19 -18 -12 -5 -3 -2 -2 -2 -2 -2 -2 -3 -3 -2 -2
-3 -3 -3 -3 -3 -3 -3 -4 -5 -11 -7 -5 -7 -12 -12 -11 -13 -18 -20 -21 -19 -21 -21 -21 -21 -21 -20 -20 -20 -19 -19 -19 -19 -19 -16 -10 -5 -4 -4 -4 -4 -4 -4 -4
-2 -3 -3 -3 -3 -4 -4 -4 -4 -4 -4 -5 -3 -3 -4 -7 -11 -19 -21 -22 -20 -21 -21 -20 -20 -19 -19 -18 -18 -18 -18 -18 -18 -18 -18 -18 -18 -17 -15 -11 -7 -6 -5 -5
-2 -3 -3 -3 -3 -4 -4 -3 -3 -3 -7 -11 -12 -12 -12 -15 -20 -22 -22 -22 -21 -20 -19 -18 -17 -17 -17 -17 -17 -17 -16 -15 -15 -16 -16 -16 -16 -16 -16 -16 -15 -12 -12 -8
-6 -3 -3 -3 -3 -3 -3 -3 -3 -4 -3 -3 -4 -6 -14 -22 -22 -20 -19 -18 -14 -13 -13 -12 -12 -12 -12 -13 -14 -15 -15 -14 -14 -14 -14 -14 -14 -14 -14 -14 -14 -14 -14 -14
-8 -8 -5 -4 -4 -3 -3 -3 -3 -3 -4 -6 -9 -9 -10 -18 -18 -15 -14 -14 -15 -15 -14 -14 -12 -12 -12 -12 -13 -14 -15 -14 -14 -14 -14 -14 -14 -14 -14 -14 -14 -14 -13 -13
-11 -11 -10 -9 -7 -7 -6 -4 -4 -5 -5 -4 -5 -8 -10 -13 -18 -18 -18 -19 -20 -20 -19 -18 -15 -13 -12 -12 -13 -14 -14 -14 -13 -13 -13 -13 -13 -13 -13 -13 -13 -13 -13 -13
-12 -13 -13 -13 -12 -12 -13 -13 -10 -7 -6 -4 -5 -5 -7 -10 -13 -18 -19 -20 -20 -21 -20 -19 -15 -13 -12 -13 -14 -14 -13 -13 -13 -13 -12 -12 -12 -12 -12 -12 -12 -12 -12 -12

GFSNGP_850_dewp_105.txt.gz
Dewpoint
4 2 2 2 3 4 0 3 2 4 3 -0 -2 -3 -3 -2 1 1 1 1 0 0 1 5 5 4 4 4 3 2 2 2 2 2 2 2 2 1 1 2 1 0 -0 -0
1 1 3 4 3 3 3 4 4 3 3 -1 -1 -1 -1 -1 0 1 2 2 2 2 2 3 4 4 4 3 3 2 3 3 3 3 2 2 3 3 2 0 0 -0 0 0
1 -0 2 2 1 3 3 2 3 4 2 -1 -1 -1 -0 -0 -1 -1 0 2 2 2 2 3 3 3 3 3 3 3 3 3 3 3 3 3 1 1 1 0 0 0 0 1
1 -1 2 -1 -2 1 2 1 -0 -0 -0 -0 -0 0 0 0 0 -1 -1 1 2 3 2 2 2 3 3 3 2 2 2 2 1 1 1 1 1 1 0 0 1 1 1 1
2 1 -1 1 1 2 1 3 2 1 0 -1 -1 0 0 0 0 0 -0 -1 -0 2 3 3 3 3 3 2 2 2 1 1 1 1 1 1 1 1 1 1 1 1 1 1
1 2 3 0 -2 -2 -1 4 2 0 -1 -0 -0 1 0 1 1 0 -0 -0 -1 0 3 3 3 3 2 2 2 2 2 2 2 1 1 1 1 1 1 1 1 1 1 1
1 1 -0 -3 -1 -1 1 -0 2 0 -1 0 0 -0 1 1 1 1 0 -0 0 1 3 3 3 3 2 2 2 2 2 2 2 1 1 1 1 1 1 2 2 1 1 1
0 2 1 -3 -0 2 -1 1 3 1 0 1 1 1 1 1 1 1 1 2 4 3 3 3 3 3 3 3 3 2 2 2 2 2 2 2 2 2 2 2 1 1 0 0
-1 -1 -2 1 1 2 1 -1 2 2 1 1 1 2 1 2 2 1 1 1 3 4 3 3 3 3 3 3 3 3 2 2 2 2 2 2 2 2 2 1 1 0 0 -0
-0 -0 -0 -1 -0 0 2 2 2 3 2 2 2 2 2 2 2 2 2 1 1 1 2 3 4 3 3 3 3 3 3 2 2 2 2 2 2 2 1 1 0 0 -0 -0
-0 -1 -1 -0 0 0 2 2 2 3 3 2 2 3 2 2 1 1 1 1 1 1 1 1 1 1 1 2 2 2 2 2 2 2 2 2 2 1 0 0 0 0 1 0
2 -0 -0 1 0 1 -0 1 2 2 2 3 3 3 3 1 0 0 -0 -0 -0 -1 -0 -0 0 1 1 1 1 1 1 1 1 1 1 1 0 0 1 1 1 1 1 1
-1 -1 -1 -1 -0 0 0 -1 1 2 2 2 2 2 2 0 -0 -1 -1 -2 -2 -2 -2 -2 -2 -2 -2 -2 -1 -1 0 1 1 0 0 0 1 0 0 0 1 1 1 1
-2 -3 -2 -2 -0 -1 -1 -0 0 1 2 1 1 1 1 0 1 1 1 1 -1 -1 -1 -1 -2 -2 -2 -2 -2 -2 -2 -1 -1 0 0 0 0 0 0 0 1 1 1 0
-2 -2 -2 -2 -1 -0 0 1 1 1 1 1 1 1 2 1 1 -0 0 -1 -2 -2 -2 -2 -2 -2 -2 -2 -2 -2 -2 -2 -2 -2 -1 -0 -0 0 0 0 0 0 0 0
-2 -2 -2 -1 -1 -1 -1 -1 -1 -0 0 0 0 -0 0 0 1 1 0 -1 -3 -3 -3 -3 -3 -3 -3 -2 -2 -2 -2 -2 -2 -2 -2 -1 -1 -0 -0 -0 -0 -0 -0 -0
-3 -2 -2 -2 -2 -2 -1 -1 -0 -1 0 0 0 -0 -0 -1 -1 -1 -2 -5 -12 -15 -13 -10 -6 -4 -3 -3 -3 -3 -2 -2 -2 -2 -2 -2 -1 -1 -1 -1 -1 -1 -1 -1
-2 -2 -2 -2 -2 -3 -2 -1 -1 -0 -0 -0 -1 -1 -1 -1 -2 -6 -13 -17 -19 -17 -12 -11 -16 -19 -19 -18 -13 -8 -6 -5 -3 -2 -2 -2 -2 -2 -2 -2 -2 -2 -1 -1
-3 -2 -3 -3 -3 -3 -3 -2 -1 -1 -1 -2 -2 -2 -3 -3 -3 -5 -9 -18 -16 -15 -13 -19 -20 -21 -20 -20 -21 -20 -20 -20 -19 -17 -11 -4 -3 -3 -3 -3 -3 -3 -2 -2
-3 -3 -3 -3 -3 -4 -4 -3 -2 -2 -3 -3 -3 -4 -4 -6 -8 -9 -9 -12 -16 -15 -16 -20 -21 -21 -21 -21 -20 -20 -20 -20 -19 -19 -19 -19 -18 -15 -8 -5 -4 -4 -4 -4
-3 -3 -3 -3 -4 -3 -3 -3 -4 -4 -5 -6 -6 -5 -7 -8 -8 -6 -4 -5 -5 -5 -9 -20 -21 -21 -20 -20 -19 -19 -18 -18 -18 -18 -18 -18 -18 -18 -18 -18 -17 -16 -14 -9
-4 -3 -3 -4 -4 -4 -4 -4 -5 -5 -5 -4 -4 -5 -5 -5 -7 -10 -12 -12 -19 -21 -20 -20 -18 -16 -14 -13 -12 -12 -12 -13 -15 -16 -16 -16 -16 -16 -16 -16 -16 -15 -15 -15
-7 -4 -4 -4 -4 -4 -4 -4 -4 -4 -4 -4 -4 -5 -8 -11 -12 -15 -19 -20 -21 -20 -17 -13 -12 -12 -12 -12 -12 -12 -12 -12 -13 -14 -15 -15 -15 -15 -15 -15 -15 -14 -14 -14
-7 -8 -7 -5 -4 -4 -4 -3 -3 -3 -4 -4 -4 -4 -4 -4 -8 -14 -18 -16 -13 -14 -13 -14 -15 -16 -17 -17 -16 -14 -13 -13 -13 -14 -14 -14 -14 -14 -13 -13 -13 -13 -13 -13
-8 -7 -7 -7 -7 -7 -5 -4 -4 -4 -4 -4 -4 -3 -4 -8 -10 -11 -15 -17 -15 -15 -16 -18 -19 -20 -20 -20 -18 -14 -13 -13 -13 -14 -14 -14 -13 -13 -13 -13 -13 -13 -13 -13
-11 -11 -10 -10 -10 -8 -7 -6 -5 -5 -5 -4 -4 -5 -6 -4 -5 -8 -11 -14 -17 -18 -18 -19 -20 -21 -20 -20 -16 -13 -12 -12 -13 -14 -13 -13 -13 -13 -13 -13 -13 -13 -13 -13
-11 -11 -11 -12 -13 -12 -11 -10 -11 -12 -11 -11 -11 -8 -7 -5 -5 -5 -8 -11 -12 -14 -17 -19 -19 -17 -17 -16 -13 -12 -12 -14 -14 -13 -13 -13 -13 -13 -13 -13 -13 -13 -13 -13

GFSNGP_850_dewp_108.txt.gz
Dewpoint
3 2 2 2 3 3 0 2 0 3 2 -0 -1 -2 -2 0 1 1 1 0 0 1 3 3 3 4 5 4 4 3 3 3 4 4 5 5 5 5 5 3 1 1 1 0
1 0 3 3 3 3 3 3 3 2 3 -1 -1 -1 -1 -1 -1 0 2 2 1 2 2 4 5 5 5 4 4 3 3 2 2 2 2 3 3 2 1 2 2 1 -0 -0
1 -1 2 1 0 3 3 2 3 3 1 -1 -1 -0 0 0 -1 -1 1 2 2 2 2 3 4 4 4 4 3 3 3 3 3 3 3 3 2 3 3 1 0 -0 0 0
1 -2 2 -1 -1 -1 2 1 -0 -0 0 -0 -0 0 0 0 0 -0 -1 1 2 2 2 2 3 3 3 3 3 3 3 3 3 3 3 3 3 1 1 0 0 0 1 1
1 1 -1 1 1 4 3 3 2 1 0 -1 -0 0 1 1 0 -0 -0 -0 -0 1 3 3 3 3 2 2 2 2 2 2 2 2 1 1 1 1 0 1 1 1 1 1
1 1 3 1 -2 -2 -0 4 2 -0 -1 -0 -1 -0 -0 1 1 -0 -0 -1 -0 -0 2 3 3 3 3 2 2 2 2 2 2 2 2 1 1 1 1 1 1 1 2 2
1 1 -0 -3 -1 -1 0 -2 3 0 -0 0 -0 -0 1 1 1 1 1 1 2 1 2 3 3 3 3 3 2 2 2 2 2 2 1 1 1 1 1 1 2 2 2 1
0 2 1 -1 -1 1 -1 0 3 2 0 1 1 1 1 1 1 1 1 3 4 3 3 3 3 3 3 3 3 2 2 2 2 2 2 2 1 1 2 2 2 2 1 0
-1 -1 -1 1 1 2 2 1 2 2 2 1 1 1 1 2 2 2 1 1 3 3 3 3 3 3 3 3 3 3 2 2 2 2 2 2 2 2 2 2 2 1 0 -0
-0 -0 -1 -0 0 1 2 2 2 3 2 2 2 2 2 2 1 1 1 1 1 1 2 3 3 3 3 3 3 3 3 3 2 2 2 2 2 2 2 2 1 1 0 0
-1 -1 -1 -0 0 0 1 2 2 2 3 3 2 2 2 2 1 1 1 1 1 1 1 1 1 1 2 2 2 3 2 2 2 2 2 2 2 2 2 1 1 0 1 1
0 -1 -1 -0 0 1 0 -1 0 1 2 3 3 3 3 2 1 0 -0 -1 -1 -1 -1 -1 -0 -0 1 1 1 1 1 1 1 1 2 2 1 1 1 1 0 1 2 1
-1 0 0 -1 -0 -0 -0 -1 -1 -0 2 2 2 2 3 2 0 -0 -1 -2 -2 -2 -2 -1 -1 -1 -1 -1 -1 -1 -1 -0 0 1 1 1 0 0 0 0 1 1 1 1
-1 -1 -2 -2 -1 -0 -1 -1 -1 -1 0 1 1 1 1 1 1 0 0 1 1 1 -1 -2 -2 -2 -2 -2 -2 -2 -2 -2 -2 -2 -1 -0 0 0 0 0 0 0 0 1
-3 -3 -3 -2 -2 -1 -1 -0 -0 0 0 1 1 1 1 2 2 1 0 0 1 1 -2 -3 -3 -3 -3 -3 -2 -2 -2 -2 -2 -2 -2 -2 -2 -1 -1 -0 -1 -1 0 -0
-2 -3 -3 -3 -2 -1 -1 -1 -1 -1 -1 -1 -1 -0 -0 -0 -0 0 -0 0 -0 -0 -1 -4 -6 -6 -5 -3 -3 -2 -2 -2 -2 -2 -2 -2 -2 -2 -2 -1 -2 -1 -0 -0
-3 -3 -3 -2 -2 -2 -2 -2 -1 -0 -0 -0 -0 -0 0 -0 -0 -1 -1 -1 -2 -4 -13 -14 -12 -10 -10 -10 -8 -6 -5 -4 -3 -2 -2 -2 -2 -2 -2 -2 -1 -1 -1 -1
-3 -3 -3 -3 -2 -2 -2 -2 -2 -1 -1 -1 -1 -1 -1 -1 -1 -2 -2 -6 -14 -16 -15 -13 -14 -19 -20 -20 -20 -20 -20 -20 -18 -13 -9 -4 -3 -2 -2 -2 -2 -2 -2 -2
-3 -3 -3 -3 -3 -3 -3 -3 -2 -3 -2 -2 -2 -2 -3 -3 -3 -3 -4 -7 -11 -10 -11 -14 -18 -21 -21 -20 -20 -20 -20 -20 -19 -19 -19 -19 -18 -10 -4 -4 -4 -3 -3 -3
-3 -4 -4 -3 -3 -3 -3 -3 -3 -3 -3 -3 -3 -4 -4 -4 -5 -7 -10 -9 -8 -8 -8 -10 -15 -17 -21 -21 -20 -19 -19 -19 -19 -18 -18 -18 -18 -18 -18 -18 -17 -12 -7 -6
-4 -4 -4 -3 -4 -4 -4 -3 -3 -4 -4 -4 -6 -6 -5 -6 -7 -6 -5 -5 -6 -12 -14 -14 -17 -19 -20 -18 -15 -13 -12 -12 -12 -14 -15 -15 -16 -16 -16 -16 -16 -16 -16 -16
-5 -6 -5 -4 -4 -4 -4 -4 -4 -4 -5 -5 -5 -4 -5 -5 -5 -7 -11 -14 -18 -20 -21 -19 -18 -14 -12 -12 -12 -12 -12 -12 -13 -13 -13 -14 -14 -15 -15 -15 -15 -15 -15 -14
-7 -8 -8 -4 -4 -4 -4 -4 -4 -4 -4 -4 -4 -4 -5 -6 -9 -8 -6 -8 -11 -12 -18 -17 -13 -12 -13 -14 -16 -16 -16 -14 -14 -13 -13 -14 -14 -14 -14 -14 -13 -13 -13 -13
-7 -9 -8 -7 -5 -5 -4 -4 -4 -4 -4 -4 -4 -4 -4 -4 -4 -5 -11 -13 -17 -18 -16 -15 -14 -15 -17 -19 -20 -20 -19 -15 -13 -13 -13 -13 -14 -13 -13 -13 -13 -13 -13 -13
-9 -8 -8 -7 -7 -8 -7 -6 -5 -4 -4 -4 -4 -4 -4 -4 -4 -5 -9 -10 -13 -17 -16 -15 -16 -18 -19 -20 -20 -20 -18 -14 -13 -12 -13 -14 -14 -13 -13 -13 -13 -13 -13 -13
-11 -10 -10 -9 -10 -9 -9 -7 -8 -7 -5 -5 -5 -5 -4 -4 -6 -6 -5 -6 -8 -11 -13 -17 -18 -18 -19 -19 -18 -17 -15 -13 -12 -13 -14 -13 -13 -13 -13 -13 -13 -13 -13 -14
-11 -11 -11 -11 -11 -12 -12 -11 -10 -11 -10 -10 -12 -12 -11 -9 -8 -6 -5 -5 -7 -9 -11 -12 -13 -14 -14 -13 -15 -15 -13 -12 -13 -14 -14 -13 -13 -14 -14 -14 -14 -14 -14 -14

GFSNGP_850_dewp_114.txt.gz
Dewpoint
2 2 2 3 3 2 4 2 5 2 3 1 0 0 -0 -0 1 2 3 3 4 4 3 3 4 6 8 8 6 6 6 6 6 6 7 8 10 10 9 8 7 7 7 7
3 -0 0 2 2 2 2 2 2 2 2 -1 -0 -0 0 0 0 1 1 2 3 3 4 5 4 5 6 7 7 7 7 6 6 7 8 9 9 8 8 8 7 7 6 2
3 -0 1 3 2 3 2 1 2 3 2 -0 0 1 1 1 1 1 1 1 1 3 3 4 5 4 4 4 5 6 7 8 8 9 9 9 9 8 8 7 6 4 1 1
1 -1 2 0 0 0 3 2 1 1 0 -0 0 1 1 1 1 1 1 1 1 1 3 2 3 4 4 4 4 4 4 4 4 5 5 5 5 4 4 3 2 1 1 0
1 1 1 1 1 3 3 4 1 -0 -1 -0 0 0 1 1 1 1 1 1 1 0 1 2 2 3 3 4 4 4 3 3 3 3 3 3 2 2 2 2 2 1 0 0
1 1 2 0 -1 -1 -0 4 1 -0 -0 -0 -1 -0 1 1 1 1 1 3 2 1 1 3 3 3 3 3 3 3 3 4 4 4 3 3 3 3 2 2 1 0 1 1
1 1 -0 -3 -2 -1 0 3 2 1 1 0 0 1 1 1 1 1 1 3 3 3 3 3 3 3 3 3 2 2 2 2 3 3 3 2 2 1 1 1 1 1 1 1
1 2 2 -1 -0 -1 0 1 2 1 1 1 1 1 1 2 2 1 1 2 3 3 3 3 3 3 3 3 3 2 2 2 2 2 2 2 1 1 1 1 1 1 1 2
-2 -1 -1 1 1 1 1 2 3 3 2 1 1 1 2 2 1 1 1 1 1 2 3 3 3 3 3 3 3 3 2 2 2 2 2 1 1 1 1 1 1 1 1 1
-0 -0 0 0 1 2 2 2 2 3 2 2 2 2 1 1 1 1 0 1 1 1 1 2 3 3 3 3 3 3 2 2 2 2 2 1 1 1 1 1 1 1 1 1
-1 -1 -0 -0 0 2 2 2 2 2 2 2 2 1 1 2 1 0 -0 -1 -1 -1 -1 0 1 1 1 2 3 3 3 3 3 3 2 2 2 2 2 2 2 2 2 1
-1 -2 -2 -1 -0 -0 -0 -1 -1 1 2 2 2 2 2 2 1 1 -0 -1 -2 -2 -2 -2 -2 -2 -2 -1 -1 -0 1 1 2 2 2 2 2 2 2 2 2 2 2 2
-1 -1 -1 -0 0 0 0 -0 -0 -1 -0 2 2 2 2 2 1 -0 0 1 0 1 1 2 2 1 0 -2 -2 -2 -2 -1 -1 -1 0 1 1 2 1 1 1 1 1 1
-1 -1 0 0 -0 -0 -1 -1 -1 -1 -2 -1 1 1 1 1 1 1 0 0 1 1 1 1 1 1 1 1 0 -2 -3 -2 -2 -2 -2 -1 -1 -1 -1 -0 -0 0 0 0
-1 -1 -1 -1 -1 -2 -3 -2 -2 -1 -1 -1 -0 0 1 1 1 1 1 1 1 0 -0 -0 -0 -0 -1 -2 -2 -2 -3 -3 -3 -3 -3 -2 -2 -2 -2 -2 -3 -3 -2 -1
-1 -1 -3 -3 -3 -4 -4 -3 -2 -2 -2 -1 -1 -1 -1 -2 -1 -1 -0 -0 -0 -0 -0 -1 -1 -3 -7 -8 -9 -9 -10 -6 -5 -5 -4 -4 -3 -3 -2 -2 -2 -2 -2 -2
-2 -2 -3 -3 -4 -5 -4 -3 -3 -2 -1 -1 -1 -1 -1 -1 -1 -1 -1 -1 -1 -2 -2 -3 -7 -9 -8 -7 -6 -7 -10 -20 -20 -20 -20 -17 -11 -5 -3 -3 -3 -2 -2 -2
-2 -3 -3 -5 -5 -4 -4 -4 -3 -2 -2 -2 -2 -2 -2 -2 -1 -2 -3 -3 -3 -4 -6 -9 -11 -13 -17 -19 -19 -19 -18 -19 -20 -20 -20 -19 -19 -19 -17 -9 -4 -3 -3 -3
-3 -5 -5 -4 -6 -6 -6 -5 -3 -2 -3 -2 -3 -3 -2 -3 -3 -4 -4 -4 -5 -6 -8 -8 -9 -10 -12 -15 -12 -9 -9 -11 -14 -16 -18 -18 -18 -18 -18 -17 -17 -14 -7 -5
-4 -4 -4 -6 -7 -7 -6 -6 -4 -3 -3 -3 -3 -3 -3 -4 -4 -4 -5 -6 -8 -8 -7 -5 -6 -6 -6 -8 -8 -9 -15 -11 -10 -12 -12 -12 -13 -13 -14 -15 -15 -16 -16 -16
-4 -4 -5 -6 -7 -8 -8 -7 -5 -4 -4 -4 -3 -3 -4 -5 -5 -6 -6 -6 -5 -6 -8 -11 -14 -16 -18 -18 -14 -12 -11 -11 -12 -14 -14 -14 -14 -14 -14 -14 -14 -14 -14 -14
-4 -4 -5 -7 -8 -9 -9 -8 -6 -4 -4 -4 -4 -4 -5 -5 -5 -5 -5 -6 -10 -11 -14 -17 -20 -20 -17 -12 -12 -11 -9 -9 -10 -10 -13 -12 -10 -12 -14 -14 -14 -14 -14 -14
-4 -5 -6 -9 -10 -9 -8 -6 -5 -5 -4 -4 -4 -5 -4 -4 -4 -4 -5 -6 -5 -5 -9 -11 -12 -13 -15 -11 -8 -9 -14 -18 -19 -20 -18 -14 -13 -12 -12 -13 -13 -13 -13 -12
-5 -6 -8 -9 -9 -8 -8 -8 -7 -6 -5 -5 -4 -5 -4 -4 -4 -4 -4 -4 -4 -4 -8 -10 -13 -16 -16 -15 -14 -15 -18 -18 -19 -19 -16 -13 -12 -12 -13 -14 -13 -13 -12 -13
-6 -7 -9 -10 -9 -9 -9 -9 -8 -8 -8 -7 -6 -5 -5 -5 -4 -4 -4 -4 -4 -4 -5 -8 -9 -12 -15 -15 -16 -17 -18 -18 -17 -15 -15 -13 -12 -13 -13 -13 -13 -13 -13 -13
-6 -7 -9 -10 -10 -10 -10 -10 -10 -10 -9 -9 -9 -8 -7 -6 -6 -6 -7 -5 -4 -6 -6 -6 -6 -8 -11 -12 -13 -14 -14 -13 -13 -14 -13 -12 -13 -13 -13 -13 -13 -13 -14 -14
-6 -6 -7 -10 -11 -11 -11 -12 -12 -13 -12 -12 -11 -10 -10 -10 -11 -11 -10 -10 -8 -7 -6 -5 -6 -8 -10 -10 -11 -11 -11 -11 -13 -13 -12 -13 -14 -14 -14 -14 -14 -14 -14 -14

GFSNGP_850_dewp_117.txt.gz
Dewpoint
1 2 1 2 2 1 4 2 5 3 3 2 1 0 -0 0 1 1 2 4 5 5 5 5 7 9 10 9 7 7 7 7 7 9 9 9 10 10 10 10 10 9 8 6
2 -0 0 3 2 2 2 1 2 2 3 0 -0 -0 0 0 0 1 1 2 3 4 5 5 4 6 9 9 9 9 8 7 7 7 9 8 9 10 10 9 9 8 7 6
3 0 0 2 3 2 2 2 1 4 2 -1 0 1 1 1 0 1 1 2 2 3 4 4 4 5 6 8 9 9 8 8 8 8 8 9 10 10 9 9 8 7 7 7
0 -1 2 1 1 2 2 2 0 -0 -0 -0 0 1 1 1 1 1 2 2 3 3 3 4 4 4 4 4 6 8 9 9 9 8 8 8 9 9 8 8 8 7 7 5
1 1 1 1 1 3 4 3 -1 -1 -1 -1 -0 0 1 1 1 2 2 3 3 3 3 3 3 3 4 4 4 4 4 6 7 8 9 9 8 8 8 7 6 4 2 1
0 2 2 -0 -1 -1 -0 5 0 -0 -0 -1 -2 1 2 2 1 1 2 3 3 3 4 3 3 3 3 3 4 4 4 3 3 4 4 4 4 4 4 3 2 1 1 1
-0 1 0 -2 -2 -1 2 5 1 1 1 0 1 1 2 2 2 1 1 3 3 3 3 3 3 4 3 3 2 3 3 3 3 3 3 3 3 2 2 2 2 2 1 0
-1 -0 2 -1 -0 0 2 2 1 1 1 1 1 2 2 2 1 1 1 1 2 3 3 3 3 3 3 3 2 2 2 2 2 2 3 3 3 2 2 2 1 1 1 1
-1 -0 -0 1 1 1 1 2 2 2 2 2 2 2 2 1 1 1 1 1 1 1 2 3 3 3 3 3 3 3 2 2 2 2 2 2 1 1 1 1 1 1 1 1
-1 -1 0 1 2 2 2 2 3 3 2 2 2 2 2 1 1 0 -1 -1 -1 -0 1 1 2 2 3 3 3 3 3 2 2 2 2 2 1 1 1 1 1 1 1 1
-1 -1 -0 0 1 2 2 2 2 2 3 2 2 2 2 2 1 0 -1 -1 -2 -2 -2 -2 -2 -1 -1 0 1 2 3 3 2 3 2 2 2 2 1 1 1 1 1 1
-4 -3 -3 -2 -0 1 1 1 -0 1 2 2 2 3 3 2 1 1 0 0 -1 -1 0 1 0 0 0 -1 -2 -1 -1 -0 1 1 2 2 1 1 1 1 0 1 1 1
-3 -2 -2 -1 0 -1 0 -1 -0 -1 -1 1 1 2 2 2 1 1 -0 -0 -0 0 1 1 0 0 0 0 0 0 -2 -3 -2 -2 -1 -1 0 1 1 0 0 0 0 -0
-1 -1 0 0 -0 -1 -0 -1 -1 -1 -1 -2 -1 0 1 1 1 1 0 0 0 1 1 0 0 -1 -1 -1 -1 -1 -1 -0 -2 -3 -3 -3 -2 -1 -1 -0 -0 -0 -0 -0
-1 -1 -1 -1 -0 -1 -0 -1 -2 -1 -1 -2 -2 -1 -0 1 1 1 1 1 0 0 -0 -0 -1 -1 -1 -2 -4 -5 -4 -3 -4 -4 -3 -3 -3 -3 -2 -2 -2 -2 -2 -3
-1 -1 -1 -1 -1 -1 -2 -3 -3 -1 -2 -1 -1 -1 -2 -2 -1 -2 -1 -1 -1 -1 -1 -1 -2 -2 -3 -4 -5 -6 -10 -16 -17 -15 -13 -10 -7 -5 -4 -3 -3 -3 -3 -3
-1 -1 -1 -1 -1 -3 -4 -4 -3 -2 -2 -2 -1 -1 -1 -1 -1 -1 -1 -1 -1 -1 -2 -3 -4 -6 -9 -12 -15 -16 -15 -11 -12 -17 -21 -21 -20 -19 -17 -10 -5 -4 -3 -3
-3 -2 -2 -3 -4 -4 -5 -5 -4 -4 -3 -2 -2 -2 -2 -2 -2 -2 -2 -3 -3 -4 -3 -4 -5 -8 -9 -13 -15 -17 -15 -12 -10 -10 -11 -12 -15 -18 -19 -19 -18 -16 -7 -4
-2 -2 -3 -3 -5 -6 -5 -5 -5 -4 -4 -3 -2 -2 -3 -3 -2 -2 -3 -4 -4 -4 -5 -7 -7 -7 -8 -8 -9 -9 -8 -11 -14 -14 -13 -13 -13 -14 -15 -16 -17 -17 -17 -16
-2 -3 -4 -5 -5 -6 -7 -7 -6 -4 -4 -3 -3 -3 -3 -3 -3 -4 -4 -4 -5 -6 -7 -7 -6 -6 -7 -9 -15 -18 -14 -13 -12 -10 -9 -11 -12 -14 -14 -13 -13 -14 -15 -15
-3 -4 -5 -5 -7 -8 -9 -9 -9 -6 -5 -4 -4 -4 -4 -3 -4 -5 -5 -6 -6 -6 -6 -7 -9 -12 -14 -15 -18 -15 -12 -11 -12 -13 -11 -9 -9 -9 -8 -9 -12 -13 -13 -14
-4 -5 -5 -6 -7 -8 -9 -10 -9 -8 -7 -5 -4 -4 -4 -4 -5 -5 -5 -5 -5 -6 -9 -10 -12 -14 -17 -19 -17 -13 -12 -10 -8 -10 -15 -18 -19 -16 -13 -12 -10 -12 -13 -9
-3 -4 -4 -6 -7 -10 -10 -9 -8 -7 -7 -6 -4 -4 -4 -5 -5 -5 -4 -4 -4 -5 -5 -5 -8 -11 -13 -13 -15 -13 -10 -9 -13 -17 -18 -19 -18 -15 -13 -12 -13 -13 -12 -12
-4 -4 -5 -7 -9 -11 -10 -9 -9 -8 -8 -7 -6 -5 -4 -4 -5 -5 -5 -4 -4 -4 -4 -4 -5 -8 -11 -14 -15 -16 -14 -14 -16 -18 -18 -18 -16 -15 -12 -13 -13 -13 -13 -13
-4 -5 -6 -8 -11 -11 -10 -9 -9 -9 -9 -9 -9 -8 -7 -6 -5 -5 -5 -5 -5 -4 -5 -5 -5 -5 -9 -10 -12 -14 -15 -15 -16 -16 -16 -14 -14 -13 -12 -13 -13 -13 -13 -13
-4 -6 -7 -8 -10 -10 -10 -9 -10 -10 -10 -11 -11 -11 -10 -8 -8 -8 -7 -7 -7 -8 -6 -5 -6 -6 -6 -7 -9 -12 -13 -13 -13 -13 -12 -13 -13 -13 -13 -13 -13 -13 -14 -13
-5 -6 -6 -7 -8 -9 -10 -10 -10 -11 -13 -13 -14 -14 -13 -11 -10 -9 -10 -10 -10 -9 -9 -8 -6 -6 -6 -7 -9 -10 -11 -11 -11 -11 -12 -13 -13 -13 -14 -14 -14 -14 -14 -14

GFSNGP_850_dewp_120.txt.gz
Dewpoint
1 2 2 3 3 3 3 3 5 4 4 2 1 1 0 1 2 3 4 4 5 5 6 8 9 10 9 9 9 8 9 9 9 9 9 10 9 9 9 10 9 9 8 7
2 0 2 3 4 3 5 6 3 4 3 1 1 1 1 1 1 2 3 3 4 5 5 5 7 9 9 9 8 8 8 10 9 9 9 10 9 9 9 9 8 9 9 10
2 -0 -0 3 5 3 2 1 1 4 2 1 2 1 1 1 2 3 3 3 3 4 4 5 5 6 9 9 8 8 8 9 9 10 9 9 9 9 10 10 10 10 9 9
2 -1 4 1 1 2 2 1 -0 -0 0 1 1 1 1 1 2 3 3 3 3 3 3 4 4 4 4 7 8 8 8 8 8 9 9 9 9 9 8 9 9 9 8 7
2 2 2 1 1 2 3 3 0 0 -1 0 1 1 2 1 2 3 3 3 3 4 3 3 3 4 4 4 4 5 7 8 8 8 8 8 9 8 8 8 8 8 8 7
1 2 4 1 -0 -1 -0 4 0 0 0 1 -0 3 2 2 1 2 3 3 2 3 3 3 3 3 3 3 4 4 4 4 4 6 7 7 7 7 7 7 7 7 7 6
1 1 0 -2 -1 -1 3 4 1 1 1 1 2 2 2 1 1 1 3 3 3 3 3 3 3 3 2 2 2 2 2 3 3 3 3 3 4 4 4 4 4 3 3 2
-0 0 2 -1 -1 2 3 1 1 1 2 2 2 2 2 1 1 1 1 2 3 3 3 3 3 3 3 2 2 2 2 2 2 2 3 3 3 3 2 2 2 2 1 1
-0 1 0 1 1 1 2 2 2 2 2 2 2 2 1 1 1 0 1 1 1 2 3 3 3 3 3 3 3 3 3 2 2 2 2 2 2 2 2 2 2 1 1 1
-1 0 1 1 2 2 2 2 2 2 2 2 2 2 1 1 1 -0 -1 -1 -1 -1 -1 -0 1 1 2 3 3 3 3 3 3 2 2 2 2 2 1 1 1 1 1 1
-1 -0 0 1 1 2 2 1 1 2 2 2 2 2 2 2 1 0 -0 -1 -1 -1 -1 -1 -1 -1 -1 -1 -1 1 1 2 2 2 3 2 3 2 2 1 1 1 1 1
-2 -2 -1 -1 1 1 0 0 0 1 1 2 2 3 2 2 1 0 -0 -0 -0 0 1 0 0 -0 -1 -1 -1 -0 -0 -2 -1 0 1 2 2 2 2 2 1 1 0 0
-3 -3 -2 -1 0 0 0 -1 -1 -1 -0 1 0 2 2 2 1 1 0 -0 -0 -0 1 0 -0 -0 -1 -1 -1 -2 -1 -1 -0 -2 -3 -2 -1 -1 0 1 1 1 -0 -0
-2 -2 -0 -0 -0 -0 -1 -1 -1 -1 -1 -2 -2 -1 0 1 1 1 1 0 0 1 -1 -0 -0 -1 -1 -2 -3 -3 -4 -3 -2 -1 -2 -3 -3 -3 -2 -2 -1 -1 -0 -0
-2 -2 -2 -1 -1 -1 -1 -1 -1 -1 -2 -2 -2 -2 -2 -1 -0 0 0 0 0 -0 -1 -1 -1 -2 -2 -3 -4 -5 -6 -6 -9 -9 -7 -6 -5 -4 -4 -3 -3 -2 -2 -2
-1 -1 -1 -1 -1 -1 -1 -1 -2 -3 -3 -3 -2 -2 -3 -2 -2 -2 -1 -1 -1 -1 -1 -1 -2 -2 -3 -5 -7 -9 -10 -10 -8 -10 -14 -18 -20 -20 -18 -11 -6 -5 -5 -3
-1 -1 -1 -1 -1 -1 -1 -2 -3 -4 -3 -3 -2 -2 -2 -1 -1 -1 -1 -2 -2 -2 -2 -3 -4 -4 -5 -7 -10 -14 -17 -18 -18 -17 -15 -15 -16 -17 -18 -19 -18 -19 -18 -8
-3 -3 -3 -2 -2 -1 -2 -4 -5 -5 -6 -7 -5 -3 -2 -2 -2 -3 -3 -2 -2 -3 -4 -4 -4 -5 -7 -7 -8 -8 -10 -10 -9 -10 -12 -13 -13 -13 -14 -15 -16 -17 -17 -18
-2 -3 -3 -2 -3 -3 -4 -5 -6 -7 -8 -7 -5 -4 -3 -3 -3 -3 -3 -3 -4 -4 -4 -5 -7 -7 -6 -6 -7 -7 -9 -10 -9 -12 -11 -9 -11 -12 -13 -14 -14 -13 -14 -14
-2 -2 -3 -3 -4 -5 -6 -6 -9 -10 -10 -8 -6 -5 -4 -4 -3 -3 -3 -4 -5 -5 -6 -7 -6 -6 -7 -10 -11 -13 -18 -16 -15 -13 -10 -12 -12 -10 -10 -10 -9 -9 -12 -13
-3 -3 -3 -4 -5 -6 -7 -10 -10 -11 -11 -9 -8 -6 -5 -4 -4 -3 -3 -4 -5 -6 -6 -6 -8 -10 -12 -15 -17 -17 -18 -13 -11 -11 -12 -10 -10 -15 -19 -19 -15 -13 -11 -11
-4 -4 -4 -6 -6 -7 -9 -9 -12 -12 -10 -9 -9 -8 -6 -4 -4 -4 -4 -5 -5 -5 -5 -5 -8 -7 -8 -10 -10 -13 -16 -14 -11 -9 -7 -12 -16 -19 -19 -18 -15 -13 -12 -12
-4 -4 -5 -5 -6 -7 -8 -12 -12 -10 -10 -10 -9 -8 -7 -6 -4 -4 -5 -5 -4 -4 -4 -4 -4 -4 -4 -5 -9 -13 -15 -14 -13 -12 -13 -15 -17 -18 -18 -16 -14 -13 -13 -13
-3 -4 -5 -5 -6 -7 -11 -12 -10 -10 -10 -10 -10 -9 -8 -8 -7 -5 -5 -5 -5 -4 -4 -4 -4 -4 -4 -5 -7 -10 -12 -14 -15 -15 -15 -16 -17 -16 -14 -14 -13 -12 -13 -13
-3 -4 -4 -5 -7 -9 -12 -11 -11 -11 -10 -11 -11 -11 -10 -9 -8 -9 -8 -8 -6 -6 -6 -6 -5 -5 -5 -5 -5 -8 -9 -9 -12 -13 -14 -14 -13 -12 -13 -13 -13 -13 -13 -13
-4 -4 -5 -6 -7 -10 -11 -11 -11 -10 -11 -12 -13 -14 -14 -13 -12 -11 -9 -8 -9 -9 -9 -9 -9 -8 -6 -6 -7 -6 -7 -9 -11 -12 -12 -11 -11 -11 -13 -13 -13 -14 -14 -14
-4 -4 -5 -6 -7 -8 -9 -9 -10 -11 -11 -11 -12 -13 -14 -15 -15 -13 -12 -11 -10 -10 -9 -8 -7 -7 -7 -6 -6 -6 -8 -9 -10 -10 -10 -11 -11 -13 -12 -13 -14 -14 -14 -14

GFSNGP_850_dewp_123.txt.gz
Dewpoint
3 2 3 5 5 5 5 5 5 5 4 3 2 2 2 3 3 4 4 4 5 6 8 9 9 10 10 10 10 10 10 10 9 9 8 9 10 9 10 9 9 10 9 10
1 1 2 5 4 3 4 2 3 4 4 1 1 1 2 3 3 3 4 4 5 5 7 8 9 9 9 9 9 10 10 10 10 10 10 10 9 9 9 9 9 10 9 9
2 -0 -1 3 5 2 2 1 1 4 3 1 2 1 2 3 3 3 3 4 4 5 6 6 7 8 8 8 8 9 9 9 9 9 9 9 10 9 9 9 9 9 9 9
1 -1 3 2 1 1 2 2 1 1 2 2 2 2 2 2 3 3 4 4 4 4 4 4 5 6 5 7 7 8 8 8 8 9 9 8 8 8 9 9 9 9 9 9
1 2 2 2 1 2 3 3 1 1 0 1 1 1 2 1 3 3 3 4 4 4 3 3 3 4 4 4 4 7 7 8 8 8 8 8 7 8 8 7 8 8 8 9
0 2 3 1 -0 -1 -0 4 1 1 1 1 1 3 2 1 2 3 3 3 4 3 3 3 3 2 2 2 3 3 3 3 4 6 7 8 7 7 7 7 7 7 7 7
1 1 0 -1 -1 -1 3 3 1 1 1 1 2 2 2 1 1 2 3 3 3 3 3 3 3 2 2 2 2 2 2 2 3 3 3 3 4 4 5 6 6 6 6 5
-1 0 -0 -1 -1 1 1 1 1 1 1 2 2 1 1 1 0 0 1 2 2 2 3 3 3 3 2 2 2 2 2 2 2 2 2 2 3 3 3 2 2 2 3 3
-1 -1 -0 1 1 2 1 2 2 2 2 2 2 1 0 -0 -1 -1 -1 -1 0 1 2 2 2 3 3 3 3 3 3 3 2 2 2 2 2 2 1 1 2 2 2 1
-1 -1 0 1 1 2 2 2 2 2 2 2 2 1 1 0 -1 -1 -1 -2 -2 -2 -2 -2 -2 -2 -2 -1 0 1 1 1 2 2 2 3 2 2 2 1 1 1 1 1
-1 -0 0 1 1 2 2 1 1 2 2 2 2 2 1 1 -0 -0 -0 -0 -1 -1 -1 -1 -1 -2 -1 -1 -2 -2 -1 -1 -1 -1 1 2 2 2 2 2 2 2 2 1
-1 -1 -1 -1 0 1 1 0 0 0 1 2 2 2 2 1 0 -0 -0 -0 -0 -1 -0 -0 -1 -1 -2 -3 -3 -4 -4 -3 -2 -1 -1 -2 -2 -0 1 1 1 1 1 1
-4 -4 -2 -2 0 1 -0 -0 -0 0 0 0 2 3 2 2 1 0 -0 -0 -0 -0 0 -1 -1 -0 -1 -2 -3 -4 -4 -3 -3 -2 -1 -1 -2 -3 -3 -3 -1 -0 0 0
-4 -3 -1 -1 1 1 -0 -1 -1 -0 -1 -1 -1 -0 0 0 1 1 0 0 0 0 0 -1 -1 -1 -1 -2 -3 -3 -4 -4 -4 -4 -4 -4 -3 -3 -4 -4 -4 -4 -3 -2
-3 -3 -3 -1 -1 1 -0 -1 -0 -1 -1 -2 -2 -2 -2 -1 -1 -0 -0 0 -0 -1 -1 -1 -1 -1 -2 -3 -4 -5 -6 -7 -8 -8 -8 -10 -13 -17 -18 -16 -11 -7 -5 -4
-1 -2 -2 -2 -1 -1 -1 -1 -1 -1 -3 -3 -4 -3 -3 -3 -2 -1 -1 -1 -1 -1 -1 -2 -2 -3 -4 -5 -5 -6 -9 -12 -15 -16 -16 -16 -16 -16 -17 -18 -20 -20 -19 -15
-1 -1 -1 -1 -1 -1 -1 -1 -1 -3 -4 -4 -4 -4 -3 -2 -2 -2 -2 -2 -2 -2 -2 -3 -4 -4 -4 -4 -6 -8 -9 -11 -11 -9 -8 -8 -9 -10 -11 -11 -12 -13 -14 -16
-7 -6 -4 -5 -3 -2 -1 -1 -3 -5 -6 -6 -8 -7 -6 -5 -4 -3 -3 -3 -3 -3 -3 -4 -4 -5 -6 -7 -7 -7 -7 -8 -8 -8 -11 -12 -10 -10 -11 -12 -13 -13 -13 -13
-4 -5 -4 -3 -3 -2 -2 -3 -5 -6 -8 -10 -9 -8 -7 -6 -5 -4 -4 -4 -3 -4 -5 -5 -5 -7 -7 -6 -6 -7 -8 -13 -17 -15 -14 -12 -9 -10 -10 -10 -10 -11 -11 -9
-4 -3 -4 -3 -3 -2 -3 -4 -6 -7 -10 -10 -10 -9 -7 -6 -5 -4 -5 -4 -3 -4 -5 -6 -6 -6 -6 -7 -9 -12 -13 -14 -17 -13 -11 -11 -11 -10 -10 -15 -19 -20 -17 -14
-4 -3 -3 -3 -3 -4 -5 -6 -8 -10 -11 -13 -12 -10 -9 -8 -7 -6 -5 -4 -4 -5 -5 -6 -5 -6 -9 -10 -11 -13 -13 -16 -16 -13 -11 -11 -9 -9 -14 -18 -19 -19 -16 -14
-4 -4 -4 -4 -4 -5 -6 -8 -9 -10 -13 -12 -11 -10 -10 -9 -8 -6 -5 -5 -5 -5 -4 -4 -4 -5 -6 -6 -6 -7 -10 -12 -13 -14 -12 -10 -8 -11 -16 -18 -18 -16 -15 -13
-4 -4 -3 -4 -6 -6 -7 -8 -10 -13 -12 -11 -11 -11 -11 -9 -9 -7 -6 -5 -6 -5 -5 -5 -4 -4 -4 -4 -4 -5 -5 -9 -11 -14 -15 -14 -14 -14 -16 -17 -15 -14 -14 -13
-3 -3 -4 -5 -5 -6 -8 -9 -13 -13 -12 -12 -12 -11 -11 -11 -10 -9 -8 -7 -6 -6 -6 -6 -6 -5 -5 -5 -5 -5 -5 -6 -10 -12 -12 -14 -14 -15 -14 -14 -12 -13 -13 -13
-3 -3 -4 -5 -5 -6 -7 -12 -13 -12 -12 -12 -13 -13 -13 -13 -14 -14 -12 -11 -10 -9 -9 -8 -6 -6 -6 -7 -6 -6 -6 -6 -8 -7 -10 -12 -13 -13 -12 -11 -12 -13 -13 -13
-3 -3 -4 -5 -5 -6 -9 -12 -13 -12 -12 -12 -11 -12 -13 -14 -15 -16 -16 -15 -14 -12 -11 -9 -9 -9 -9 -9 -8 -7 -7 -7 -7 -9 -11 -11 -11 -11 -11 -11 -13 -12 -13 -14
-3 -3 -4 -4 -5 -6 -9 -11 -11 -10 -10 -10 -11 -12 -12 -13 -13 -13 -14 -15 -14 -13 -12 -10 -9 -8 -8 -7 -6 -6 -6 -7 -7 -8 -9 -10 -10 -10 -11 -12 -12 -14 -14 -14

GFSNGP_850_dewp_126.txt.gz
Dewpoint
6 4 3 3 4 3 3 4 4 4 4 4 3 3 3 2 2 3 4 4 5 6 7 9 10 10 10 10 10 9 9 9 9 9 9 9 9 10 9 10 10 9 7 9
2 3 3 4 3 2 2 2 2 2 4 1 1 2 2 2 3 3 4 4 4 6 7 8 9 9 9 9 10 9 9 9 9 8 8 9 9 10 10 9 9 9 10 10
1 -0 -1 2 4 2 2 2 2 4 3 1 2 2 2 2 3 3 3 3 3 4 5 7 8 8 8 8 9 9 9 9 9 9 9 9 9 9 9 9 9 9 9 9
1 -2 2 -0 2 1 2 2 1 1 2 2 2 2 2 2 2 3 3 3 4 4 4 4 5 6 7 7 7 7 8 8 8 8 8 8 8 8 8 8 9 9 9 9
1 2 1 1 1 1 2 2 1 1 1 1 1 1 1 2 3 3 3 3 3 3 3 3 3 4 4 4 4 5 7 7 7 7 7 8 7 8 7 7 7 8 8 8
-0 2 3 0 -0 -1 -0 2 1 1 1 1 0 3 2 1 2 3 3 3 3 2 2 2 2 2 1 2 2 3 3 3 3 4 5 6 7 7 7 7 7 7 7 7
1 0 -0 -2 -1 -1 2 0 1 1 1 1 1 1 1 1 1 2 3 3 2 2 2 2 2 2 2 2 2 2 2 2 2 2 3 3 3 3 3 4 5 5 6 6
-1 0 -2 -2 -1 0 -1 1 1 1 1 1 1 1 0 -0 -0 0 1 2 2 3 3 3 3 2 2 2 2 2 2 2 2 2 2 1 1 1 2 2 2 2 2 3
-3 -2 -2 -0 -0 1 1 1 1 1 1 1 1 0 0 -1 -1 -2 -2 -2 -2 -2 -1 -1 -1 -1 -0 1 1 0 -1 -0 1 2 2 2 2 2 2 2 1 1 1 1
-2 -3 -0 1 2 1 1 0 0 0 1 1 1 0 0 -0 -1 -1 -1 -1 -1 -1 -1 -1 -1 -1 -1 -2 -2 -2 -2 -1 -1 -1 -0 0 1 2 2 2 2 2 2 2
-2 -1 -0 1 1 2 2 1 0 1 1 1 1 0 0 -0 -0 -1 -1 -1 -1 -0 -0 -1 -0 -1 -2 -2 -3 -3 -4 -4 -3 -2 -2 -1 -0 -0 1 1 1 1 1 1
-3 -2 -1 -1 0 2 2 1 0 0 1 1 0 0 -0 -0 -1 -1 -1 -1 -1 -0 -0 -1 -1 -1 -1 -2 -3 -3 -4 -4 -4 -3 -2 -2 -1 -2 -2 -1 -0 -0 0 0
-6 -4 -3 -2 -1 1 1 -0 -0 -1 -0 1 1 2 1 0 -0 -0 -0 -0 -1 -1 -1 -1 -2 -3 -2 -2 -3 -3 -4 -4 -4 -4 -4 -4 -3 -2 -2 -2 -3 -3 -2 -1
-6 -4 -1 -2 -0 1 0 -1 -1 -1 -0 -0 0 1 1 1 1 1 1 0 -0 -1 -1 -1 -2 -2 -2 -3 -3 -4 -4 -4 -5 -5 -7 -8 -10 -12 -13 -14 -12 -9 -6 -4
-4 -4 -5 -4 -2 0 -0 -1 -1 -1 -1 -1 -1 -1 -0 0 0 -0 0 -0 -0 -0 -1 -1 -2 -2 -2 -3 -4 -4 -5 -6 -7 -9 -11 -12 -12 -13 -14 -15 -16 -17 -19 -18
-3 -3 -4 -3 -1 0 0 -0 -1 -1 -1 -1 -2 -3 -3 -2 -2 -1 -1 -1 -1 -1 -1 -1 -2 -3 -4 -4 -4 -5 -6 -8 -10 -12 -12 -9 -8 -9 -9 -10 -11 -12 -12 -13
-2 -1 -2 -1 -1 -0 -1 -1 -2 -1 -1 -2 -4 -4 -4 -3 -3 -2 -2 -2 -2 -3 -2 -2 -3 -4 -4 -4 -5 -6 -8 -8 -8 -8 -8 -9 -11 -11 -11 -11 -12 -12 -13 -13
-7 -7 -5 -7 -3 -2 -1 -1 -1 -1 -2 -4 -4 -4 -4 -5 -5 -5 -3 -3 -3 -3 -3 -3 -4 -4 -5 -6 -7 -7 -7 -8 -8 -11 -12 -12 -12 -10 -9 -10 -10 -10 -12 -14
-5 -6 -5 -5 -5 -4 -3 -2 -1 -2 -3 -5 -6 -9 -8 -7 -7 -5 -4 -5 -4 -4 -4 -5 -5 -5 -7 -7 -6 -6 -8 -9 -10 -15 -16 -14 -13 -10 -11 -10 -10 -15 -19 -20
-6 -6 -5 -5 -3 -3 -3 -2 -2 -3 -6 -7 -9 -10 -10 -9 -8 -6 -5 -6 -5 -4 -4 -5 -6 -6 -6 -6 -7 -8 -10 -12 -14 -15 -16 -13 -11 -11 -11 -9 -12 -17 -19 -19
-7 -6 -5 -4 -3 -3 -2 -2 -3 -5 -7 -10 -11 -12 -12 -10 -8 -7 -6 -8 -4 -4 -5 -5 -5 -5 -5 -6 -8 -8 -8 -10 -10 -11 -14 -14 -12 -10 -8 -8 -12 -17 -18 -18
-5 -5 -5 -4 -3 -3 -2 -3 -5 -6 -9 -11 -13 -12 -11 -11 -10 -9 -8 -7 -5 -5 -5 -5 -4 -4 -4 -5 -5 -5 -5 -6 -6 -8 -10 -11 -13 -13 -11 -13 -15 -17 -17 -14
-5 -4 -4 -3 -3 -3 -4 -5 -6 -9 -10 -14 -13 -12 -12 -11 -10 -10 -9 -8 -6 -6 -6 -6 -6 -5 -5 -5 -5 -5 -5 -5 -5 -6 -7 -10 -14 -13 -14 -14 -15 -15 -13 -12
-4 -3 -3 -3 -3 -3 -5 -6 -8 -10 -13 -12 -12 -12 -12 -11 -12 -12 -11 -10 -10 -9 -9 -8 -7 -7 -6 -7 -7 -6 -6 -6 -6 -6 -7 -11 -9 -11 -13 -13 -13 -12 -11 -13
-3 -2 -2 -3 -3 -4 -6 -7 -9 -13 -13 -12 -12 -13 -13 -14 -15 -14 -15 -15 -14 -13 -12 -10 -9 -9 -9 -9 -9 -8 -8 -7 -7 -7 -7 -8 -9 -11 -12 -11 -11 -11 -12 -13
-3 -2 -2 -3 -4 -5 -6 -7 -10 -12 -12 -12 -11 -12 -12 -12 -13 -14 -14 -15 -15 -15 -14 -13 -11 -11 -10 -9 -8 -7 -8 -8 -7 -7 -7 -8 -9 -10 -10 -10 -10 -12 -12 -13
-3 -2 -2 -3 -4 -4 -5 -7 -11 -12 -12 -11 -11 -11 -11 -11 -12 -12 -12 -11 -12 -13 -14 -14 -14 -12 -11 -10 -9 -7 -7 -7 -7 -7 -8 -8 -9 -10 -11 -12 -12 -12 -13 -14

GFSNGP_850_dewp_129.txt.gz
Dewpoint
4 4 3 3 3 2 3 4 5 4 5 4 2 2 1 1 2 3 3 3 4 5 5 7 9 9 10 9 9 9 9 9 9 9 10 10 10 10 9 9 9 8 7 8
4 3 2 3 3 2 2 2 2 2 4 2 2 2 1 1 2 2 3 3 3 3 6 7 8 8 9 9 9 9 9 9 9 9 9 10 10 9 10 10 10 10 10 9
1 -1 -1 1 3 3 2 2 2 4 3 2 2 2 2 2 2 2 2 2 3 4 6 7 8 8 8 8 9 9 9 9 9 9 9 9 9 9 10 10 9 9 10 9
1 -2 0 -1 1 1 2 2 2 1 1 1 2 2 1 2 2 2 2 2 3 3 4 6 7 7 7 7 8 8 8 7 8 8 8 9 9 9 9 9 9 9 9 9
1 2 -0 1 1 1 2 2 1 1 1 1 1 1 1 2 2 2 3 2 2 2 2 2 3 3 4 5 7 7 7 7 7 7 7 7 7 7 8 8 8 8 9 8
-0 1 2 -1 -1 -1 -1 1 1 0 1 1 0 2 1 1 3 3 3 2 2 2 2 2 2 2 2 2 2 2 3 3 4 6 6 6 7 7 7 7 7 7 7 7
1 -0 -1 -3 -1 -1 0 -1 1 1 1 1 1 1 1 0 1 2 3 3 2 2 2 2 2 2 2 2 2 2 2 2 2 2 2 2 3 3 3 4 4 5 5 5
-1 -0 -4 -2 -1 -0 -3 1 1 1 1 1 1 0 -0 -1 -1 -1 -1 -1 -1 -1 -0 0 0 -0 1 1 1 1 1 2 2 2 2 2 2 1 1 1 1 2 2 2
-3 -3 -5 -2 -2 -1 0 0 0 -0 1 0 1 1 -0 -1 -1 -2 -2 -2 -2 -2 -2 -2 -2 -2 -2 -2 -2 -2 -2 -2 -1 -1 0 1 1 2 2 2 2 1 1 1
-2 -5 -3 -1 -1 0 1 -0 -1 -0 1 1 -0 -0 0 -1 -1 -1 -1 -1 -1 -1 -1 -2 -2 -2 -3 -3 -3 -4 -4 -5 -4 -2 -2 -1 -1 -1 -1 -1 1 1 1 1
-2 -3 -1 -1 0 1 1 1 -0 -0 -1 -0 -0 -1 -0 -1 -1 -1 -1 -1 -1 -1 -1 -1 -2 -2 -1 -2 -2 -3 -4 -4 -4 -4 -3 -2 -2 -2 -2 -1 -1 -1 -1 -0
-5 -5 -5 -5 -4 1 1 1 -0 -1 -1 -0 0 -0 -1 -0 -0 -0 -1 -1 -1 -0 -0 -0 -2 -2 -2 -1 -2 -3 -3 -4 -4 -4 -4 -5 -4 -3 -2 -2 -2 -2 -2 -2
-9 -9 -4 -4 -6 -1 0 1 0 -1 -1 -1 -1 -0 0 0 0 0 -0 -0 -0 -1 -1 -1 -1 -2 -2 -2 -3 -3 -4 -4 -4 -5 -6 -7 -7 -7 -7 -9 -9 -7 -6 -4
-6 -7 -2 -3 -4 -3 -2 -0 -1 -2 -1 -1 -1 -1 -0 -0 -0 -0 -1 -0 -1 -1 -1 -2 -2 -2 -2 -2 -3 -3 -4 -5 -5 -7 -8 -9 -11 -11 -11 -12 -11 -11 -14 -16
-5 -6 -5 -6 -4 -2 -1 1 0 -1 -1 -1 -2 -2 -2 -3 -4 -4 -4 -4 -4 -5 -5 -5 -5 -4 -3 -3 -3 -4 -5 -5 -6 -7 -8 -9 -9 -8 -8 -8 -9 -10 -10 -11
-6 -5 -4 -4 -5 -3 -1 1 -0 -1 -2 -2 -2 -2 -2 -3 -3 -4 -3 -2 -2 -1 -1 -1 -2 -2 -2 -4 -4 -4 -4 -6 -8 -8 -8 -8 -8 -10 -11 -11 -10 -11 -11 -11
-6 -3 -3 -3 -4 -3 -2 -1 -2 -2 -3 -2 -2 -2 -3 -4 -4 -4 -3 -2 -1 -2 -4 -4 -2 -2 -3 -4 -4 -5 -7 -7 -7 -8 -8 -10 -11 -12 -11 -9 -9 -10 -9 -12
-7 -10 -8 -7 -5 -4 -2 -1 -2 -2 -2 -2 -1 -2 -4 -5 -7 -6 -5 -5 -4 -4 -4 -4 -4 -4 -5 -5 -6 -7 -7 -7 -8 -8 -11 -14 -14 -13 -12 -10 -11 -10 -11 -16
-7 -5 -7 -6 -6 -7 -4 -3 -3 -2 -2 -2 -2 -4 -6 -8 -9 -8 -8 -8 -6 -7 -6 -4 -4 -5 -5 -6 -7 -6 -6 -7 -9 -10 -11 -13 -15 -12 -11 -10 -11 -9 -11 -15
-9 -5 -4 -4 -4 -5 -5 -4 -3 -2 -2 -1 -2 -5 -8 -11 -10 -9 -8 -9 -7 -7 -6 -4 -5 -5 -6 -6 -6 -6 -8 -9 -10 -11 -12 -12 -14 -14 -11 -10 -10 -8 -9 -14
-8 -7 -5 -4 -5 -4 -4 -4 -3 -2 -2 -2 -4 -7 -11 -11 -10 -9 -9 -10 -9 -6 -5 -4 -5 -5 -5 -5 -5 -6 -7 -7 -8 -9 -9 -9 -11 -12 -12 -11 -11 -9 -12 -15
-8 -7 -6 -5 -5 -4 -4 -3 -2 -2 -2 -3 -6 -9 -10 -12 -11 -10 -10 -10 -8 -6 -5 -5 -5 -5 -5 -4 -4 -5 -5 -5 -5 -5 -5 -6 -7 -8 -10 -14 -13 -13 -14 -15
-8 -6 -5 -4 -4 -5 -3 -2 -2 -2 -2 -5 -8 -10 -13 -12 -11 -11 -11 -10 -8 -6 -6 -6 -6 -6 -6 -6 -5 -5 -6 -6 -5 -5 -6 -6 -6 -7 -11 -11 -10 -13 -13 -13
-10 -7 -5 -3 -3 -3 -2 -2 -2 -2 -4 -7 -9 -12 -11 -12 -12 -12 -11 -11 -10 -9 -9 -9 -9 -8 -7 -7 -7 -7 -6 -6 -6 -6 -6 -7 -7 -7 -8 -8 -11 -12 -11 -11
-10 -11 -5 -2 -2 -2 -2 -2 -3 -4 -6 -8 -12 -12 -12 -11 -12 -12 -14 -14 -14 -14 -14 -13 -12 -11 -10 -11 -10 -10 -8 -8 -8 -8 -8 -8 -7 -8 -8 -9 -10 -10 -11 -11
-7 -8 -8 -6 -3 -2 -3 -3 -4 -5 -8 -11 -12 -11 -11 -12 -12 -12 -13 -14 -14 -14 -14 -14 -15 -14 -13 -12 -11 -10 -8 -7 -7 -7 -8 -8 -8 -8 -8 -9 -11 -12 -12 -12
-6 -5 -5 -2 -3 -2 -2 -3 -4 -6 -9 -11 -11 -10 -11 -11 -11 -11 -12 -12 -12 -11 -11 -12 -13 -13 -13 -13 -12 -11 -9 -8 -8 -8 -8 -8 -8 -9 -12 -13 -13 -13 -13 -13

GFSNGP_850_dewp_135.txt.gz
Dewpoint
3 3 3 3 3 2 2 2 3 2 4 2 3 3 2 2 2 2 2 1 1 2 3 4 4 5 5 5 5 5 5 3 5 5 5 5 8 7 5 6 7 8 9 10
2 2 2 2 1 2 2 2 2 2 3 1 1 2 2 2 2 1 1 1 1 2 3 3 4 5 6 6 6 6 6 5 5 4 6 6 9 9 9 9 9 10 10 9
2 -1 -1 -0 -1 2 2 2 2 3 1 1 1 2 2 1 1 1 1 1 1 2 3 3 5 6 6 7 6 5 4 4 6 7 8 8 8 9 9 9 9 9 9 9
1 -2 0 -6 -0 1 2 2 1 1 1 0 1 1 1 2 1 2 2 2 2 2 2 2 2 4 5 6 6 7 7 7 7 8 7 9 9 9 9 9 8 8 9 9
1 1 -2 -2 -1 2 3 1 1 1 0 0 1 0 1 2 2 2 2 2 2 1 1 1 1 1 1 1 1 3 4 5 6 7 7 8 8 8 7 8 8 8 7 7
-0 1 -0 -6 -1 -1 -1 1 1 0 0 0 0 -0 0 1 -0 -1 -1 -1 -2 -2 -2 -2 -2 -2 -1 0 1 1 1 1 2 2 3 5 6 6 6 7 7 7 7 7
0 1 -1 -5 -1 -1 -1 -4 0 -0 -0 0 -1 -1 -0 -0 -1 -1 -1 -1 -2 -3 -3 -3 -4 -5 -5 -4 -3 -2 -1 -1 -0 0 1 1 1 1 2 2 2 3 3 3
-1 -0 -2 -2 -1 0 -3 -1 -1 -1 -2 -1 -1 -1 -1 -2 -2 -1 -1 -1 -1 -2 -2 -2 -3 -4 -5 -5 -5 -6 -6 -4 -3 -2 -2 -1 -0 0 1 1 1 1 1 1
-3 -3 -7 -2 -2 -2 -2 -1 -2 -2 -2 -2 -2 -1 -1 -2 -2 -1 -1 -1 -1 -2 -3 -4 -4 -3 -4 -4 -4 -5 -7 -7 -7 -6 -5 -4 -3 -3 -3 -3 -3 -2 -2 -2
-3 -7 -5 -5 -2 -2 -2 -1 -2 -3 -3 -3 -3 -2 -2 -2 -2 -1 -1 -1 -1 -1 -2 -3 -4 -5 -4 -4 -5 -6 -6 -6 -6 -6 -6 -6 -6 -6 -5 -5 -4 -4 -3 -3
-4 -5 -5 -6 -6 -3 -2 -1 -0 -2 -2 -3 -3 -3 -2 -2 -2 -2 -2 -2 -2 -2 -2 -2 -2 -3 -3 -3 -4 -5 -6 -6 -6 -6 -7 -7 -7 -7 -7 -8 -8 -8 -9 -9
-7 -11 -8 -11 -10 -8 -5 -3 -1 -2 -2 -2 -2 -3 -2 -1 -1 -1 -1 -1 -1 -1 -1 -1 -2 -2 -2 -3 -4 -5 -6 -6 -6 -7 -8 -9 -9 -9 -9 -10 -10 -10 -10 -10
-8 -7 -8 -7 -8 -9 -7 -4 -2 -1 -3 -3 -3 -1 -1 -1 -1 -1 -1 -1 -1 -1 -1 -1 -2 -3 -4 -4 -4 -5 -5 -6 -6 -7 -9 -9 -9 -8 -9 -10 -10 -10 -11 -11
-12 -10 -6 -7 -8 -9 -7 -5 -2 -2 -2 -3 -2 -1 -1 -1 -1 -1 -2 -2 -2 -2 -2 -3 -3 -4 -4 -4 -5 -5 -5 -5 -5 -6 -8 -8 -8 -9 -10 -11 -10 -10 -10 -10
-11 -10 -10 -8 -6 -6 -5 -3 -0 0 -0 -1 -2 -2 -2 -2 -2 -3 -3 -3 -3 -3 -4 -4 -4 -4 -4 -4 -4 -4 -5 -5 -5 -6 -8 -8 -8 -9 -11 -11 -11 -10 -10 -10
-8 -7 -10 -9 -6 -4 -4 -2 0 0 0 -1 -2 -2 -3 -2 -1 -2 -3 -4 -6 -7 -6 -6 -5 -5 -7 -5 -3 -4 -5 -6 -6 -7 -8 -8 -8 -10 -11 -11 -11 -10 -10 -10
-6 -7 -9 -9 -8 -5 -5 -4 -4 -2 -1 -0 -2 -3 -2 -2 -2 -3 -4 -6 -8 -10 -10 -9 -9 -9 -9 -6 -4 -5 -6 -6 -6 -7 -7 -8 -8 -10 -11 -12 -12 -11 -10 -10
-8 -8 -7 -9 -8 -8 -7 -6 -5 -3 -2 -2 -2 -2 -2 -2 -3 -3 -4 -6 -9 -12 -12 -11 -11 -9 -8 -7 -6 -6 -6 -6 -7 -7 -7 -8 -9 -10 -11 -12 -13 -12 -11 -10
-9 -10 -11 -10 -9 -5 -6 -7 -6 -5 -4 -2 -0 -0 -2 -3 -3 -3 -3 -6 -9 -13 -14 -13 -13 -12 -9 -7 -5 -6 -6 -7 -7 -6 -6 -8 -9 -10 -10 -10 -10 -11 -11 -10
-10 -10 -11 -10 -10 -10 -7 -5 -5 -5 -5 -4 -2 -0 -0 -1 -2 -2 -2 -4 -8 -12 -13 -14 -13 -11 -11 -7 -6 -7 -6 -7 -6 -6 -7 -8 -8 -8 -8 -7 -7 -7 -8 -9
-8 -8 -9 -9 -9 -9 -8 -6 -4 -5 -6 -4 -3 -2 -1 -1 -2 -2 -2 -3 -8 -12 -12 -13 -12 -10 -9 -6 -6 -6 -6 -6 -5 -6 -6 -5 -5 -6 -6 -6 -6 -7 -7 -9
-7 -6 -5 -5 -6 -7 -8 -8 -7 -5 -4 -4 -3 -3 -1 -0 -1 -1 -2 -3 -7 -11 -13 -12 -12 -9 -6 -5 -6 -5 -5 -5 -5 -6 -6 -7 -8 -7 -6 -6 -7 -7 -8 -9
-8 -7 -6 -5 -5 -4 -4 -6 -7 -6 -5 -4 -4 -3 -2 -1 -1 -1 -2 -3 -7 -11 -12 -12 -10 -8 -6 -6 -6 -5 -5 -6 -6 -7 -6 -7 -7 -7 -8 -7 -7 -8 -8 -8
-7 -7 -7 -5 -4 -4 -5 -5 -4 -6 -7 -6 -4 -3 -2 -1 -0 -1 -2 -5 -9 -11 -12 -11 -11 -9 -8 -9 -10 -7 -8 -7 -8 -8 -8 -8 -7 -8 -8 -8 -8 -8 -8 -9
-6 -6 -6 -5 -4 -4 -4 -4 -4 -3 -4 -6 -5 -4 -2 -1 -1 -1 -2 -6 -10 -11 -12 -12 -12 -13 -14 -14 -14 -11 -12 -12 -11 -10 -10 -9 -8 -8 -8 -8 -9 -9 -9 -11
-6 -6 -5 -6 -6 -5 -5 -5 -5 -4 -4 -4 -5 -4 -2 -1 -1 -2 -5 -9 -11 -12 -13 -14 -15 -14 -12 -11 -13 -12 -12 -11 -11 -10 -10 -8 -8 -9 -9 -9 -9 -11 -13 -13
-6 -5 -5 -5 -7 -6 -5 -5 -4 -4 -4 -4 -4 -4 -2 -1 -2 -3 -6 -10 -11 -13 -14 -13 -12 -7 -9 -11 -11 -12 -13 -14 -14 -13 -11 -10 -9 -9 -8 -9 -12 -10 -11 -13

GFSNGP_850_dewp_138.txt.gz
Dewpoint
2 2 3 2 2 2 4 2 4 2 3 4 3 3 3 2 2 2 1 1 1 1 2 4 5 4 4 4 5 5 5 4 4 5 6 6 5 4 4 4 2 1 3 4
3 1 2 3 2 1 1 1 2 1 1 -1 -0 1 2 2 2 1 1 1 1 2 3 3 4 5 4 3 4 5 6 5 5 4 3 4 4 4 6 7 6 5 5 8
3 -1 -1 1 -2 -1 0 1 1 1 -2 -1 0 1 2 2 2 1 0 0 1 2 2 2 2 3 5 3 3 4 5 5 5 5 5 4 3 3 4 7 8 7 8 8
2 -1 -0 -5 -0 -0 0 1 1 1 -0 -1 0 1 2 2 1 1 -0 -1 -1 -1 0 1 1 1 2 3 6 6 5 5 4 4 4 4 3 4 5 6 8 9 9 9
1 0 -3 -4 -3 1 2 -1 -1 1 -1 -0 1 1 1 1 0 -1 -1 -2 -3 -3 -3 -3 -3 -1 -0 1 1 2 2 3 3 3 3 4 4 8 8 8 7 7 7 7
0 2 -2 -7 -1 -0 -1 1 -1 -0 -2 -1 0 -1 -0 -0 -2 -2 -2 -3 -3 -4 -5 -6 -6 -6 -4 -4 -3 -1 0 1 1 2 4 5 6 6 6 6 6 6 6 7
0 1 -2 -5 -1 -1 1 -4 0 -0 -1 -1 -0 -2 -0 -1 -2 -1 -2 -2 -3 -4 -4 -5 -5 -5 -7 -7 -6 -3 -3 -3 -2 -1 0 1 1 1 2 2 3 3 3 3
-1 1 -0 -4 -0 1 -4 -1 -0 -0 -1 -0 -1 -2 -2 -2 -2 -2 -2 -2 -4 -4 -6 -5 -5 -5 -7 -7 -6 -7 -6 -5 -4 -3 -3 -2 -2 -1 -0 -0 -0 0 0 0
-3 -4 -6 -2 -1 -1 -3 -1 -1 -1 -3 -3 -2 -2 -2 -2 -2 -2 -1 -2 -2 -3 -3 -5 -6 -6 -7 -7 -7 -8 -8 -8 -8 -8 -7 -6 -5 -5 -4 -4 -4 -4 -4 -4
-4 -8 -6 -6 -5 -2 -2 -1 -2 -3 -4 -4 -3 -3 -3 -2 -2 -2 -2 -2 -2 -2 -2 -3 -4 -5 -5 -6 -6 -6 -7 -7 -7 -8 -8 -7 -8 -8 -8 -8 -8 -8 -8 -8
-4 -6 -7 -6 -7 -5 -3 -3 -2 -1 -3 -5 -4 -4 -4 -3 -3 -3 -2 -2 -2 -1 -1 -2 -3 -4 -4 -5 -6 -6 -6 -7 -7 -8 -9 -9 -10 -10 -10 -10 -10 -10 -10 -10
-9 -11 -10 -9 -8 -6 -6 -5 -3 -2 -2 -3 -3 -4 -4 -4 -3 -3 -2 -2 -2 -1 -1 -2 -2 -4 -4 -4 -5 -6 -6 -7 -8 -9 -10 -9 -9 -10 -10 -10 -11 -11 -11 -11
-7 -8 -6 -9 -11 -10 -8 -7 -7 -3 -2 -3 -5 -4 -4 -4 -4 -3 -2 -2 -2 -2 -2 -2 -3 -3 -4 -4 -4 -5 -6 -6 -7 -9 -9 -8 -9 -10 -11 -11 -11 -10 -10 -10
-10 -9 -9 -11 -10 -9 -8 -7 -7 -6 -3 -2 -3 -4 -3 -3 -3 -2 -2 -2 -1 -2 -2 -2 -3 -3 -4 -4 -4 -4 -5 -6 -6 -8 -8 -8 -9 -10 -11 -10 -10 -10 -10 -10
-10 -8 -8 -9 -9 -8 -7 -6 -5 -4 -3 -1 -1 -2 -2 -2 -2 -3 -2 -1 -1 -2 -3 -3 -4 -4 -4 -5 -4 -4 -5 -6 -6 -7 -8 -8 -9 -10 -10 -11 -10 -10 -10 -10
-8 -8 -8 -8 -8 -10 -10 -6 -4 -4 -3 -2 -1 -2 -3 -3 -2 -2 -1 -1 -2 -5 -6 -6 -6 -6 -6 -7 -6 -4 -5 -6 -6 -7 -8 -8 -8 -9 -10 -11 -11 -10 -10 -10
-7 -7 -7 -6 -7 -8 -8 -6 -4 -5 -3 -1 -1 -1 -1 -2 -2 -1 -1 -2 -2 -4 -5 -7 -8 -7 -9 -9 -7 -5 -6 -6 -6 -7 -7 -7 -8 -8 -9 -9 -10 -11 -11 -10
-7 -7 -8 -8 -9 -8 -6 -6 -7 -5 -5 -4 -2 -0 0 0 -1 -2 -3 -2 -2 -3 -6 -9 -8 -8 -9 -9 -8 -7 -6 -6 -6 -7 -7 -7 -7 -8 -8 -9 -10 -9 -10 -10
-8 -8 -9 -10 -10 -10 -10 -8 -5 -4 -5 -5 -4 -3 -1 0 0 -1 -1 -1 -1 -2 -5 -8 -9 -10 -11 -10 -8 -7 -6 -6 -6 -7 -7 -7 -7 -8 -8 -8 -8 -7 -8 -8
-6 -6 -6 -6 -6 -6 -8 -9 -10 -9 -6 -4 -4 -4 -3 -2 -1 0 -0 -1 -2 -2 -3 -6 -9 -11 -11 -10 -10 -7 -6 -7 -7 -7 -7 -6 -6 -7 -7 -7 -7 -6 -7 -7
-7 -7 -7 -8 -8 -8 -6 -5 -5 -7 -9 -9 -6 -4 -4 -4 -3 -1 0 -0 -1 -2 -2 -4 -8 -11 -11 -10 -10 -7 -6 -7 -7 -7 -6 -5 -5 -6 -7 -7 -7 -7 -7 -7
-7 -7 -7 -8 -8 -7 -7 -7 -5 -4 -5 -6 -7 -7 -6 -5 -4 -3 -1 0 -0 -1 -1 -3 -7 -10 -10 -9 -9 -7 -6 -6 -6 -7 -7 -6 -8 -8 -9 -8 -8 -7 -7 -8
-6 -6 -6 -7 -7 -7 -6 -5 -5 -4 -4 -4 -4 -6 -5 -4 -3 -3 -3 -2 -0 -0 -1 -2 -7 -10 -10 -11 -9 -8 -8 -8 -10 -11 -10 -8 -7 -8 -9 -9 -8 -8 -7 -8
-6 -6 -6 -6 -6 -6 -7 -8 -6 -6 -5 -5 -5 -4 -4 -4 -4 -3 -2 -2 -1 -0 -1 -2 -7 -10 -11 -11 -8 -8 -8 -9 -10 -8 -9 -7 -8 -10 -9 -8 -8 -8 -8 -8
-6 -7 -8 -9 -8 -7 -6 -5 -5 -6 -6 -6 -6 -6 -4 -4 -4 -4 -4 -2 -1 -0 -1 -4 -8 -11 -12 -12 -11 -11 -11 -9 -8 -7 -9 -9 -10 -10 -9 -9 -8 -8 -9 -9
-8 -8 -6 -4 -3 -3 -3 -3 -3 -4 -4 -4 -5 -5 -5 -4 -3 -4 -4 -2 -1 -1 -2 -6 -10 -11 -10 -10 -10 -11 -10 -10 -10 -9 -9 -9 -10 -9 -9 -9 -9 -9 -9 -11
-8 -4 -3 -4 -3 -4 -4 -4 -3 -4 -4 -3 -3 -4 -4 -4 -4 -3 -3 -2 -1 -2 -3 -5 -9 -9 -10 -10 -11 -9 -9 -8 -9 -10 -10 -10 -10 -10 -10 -9 -9 -10 -11 -10

GFSNGP_850_dewp_141.txt.gz
Dewpoint
1 1 1 2 2 1 4 3 4 2 3 1 2 3 3 3 2 1 1 1 2 2 2 3 2 1 3 5 5 5 6 5 6 6 6 7 7 7 6 4 3 5 4 6
3 -1 -0 1 1 1 1 1 0 0 0 -3 -2 1 2 2 1 1 -0 -0 0 1 1 2 2 2 3 5 5 6 6 6 5 5 5 5 5 4 5 4 4 4 4 4
2 -1 -2 -0 -2 -2 -0 -1 -1 0 -3 -3 -2 0 2 1 1 -0 -1 -1 -1 -1 -1 0 1 2 2 4 4 5 4 3 4 5 6 5 5 4 3 3 4 4 5 4
2 -2 -1 -3 -2 -2 -3 -2 -2 -1 -2 -2 -1 1 1 1 -0 -1 -1 -2 -2 -2 -2 -2 -1 -0 1 3 4 4 3 1 2 4 5 5 4 4 4 3 5 6 6 7
1 -1 -4 -5 -4 -0 1 -2 -3 -1 -2 -2 -1 0 1 1 -1 -1 -2 -2 -2 -2 -3 -5 -6 -4 -2 -0 1 1 4 3 1 3 4 4 4 4 4 4 5 5 5 7
0 2 -2 -6 -3 -1 -1 1 -4 -3 -3 -3 -1 -0 -2 0 -2 -2 -3 -3 -4 -4 -5 -6 -6 -7 -7 -4 -2 -1 1 1 3 4 4 3 3 3 4 4 3 3 5 6
-0 1 -2 -7 -2 -1 0 -2 -2 -2 -4 -3 -1 -3 0 -2 -3 -2 -3 -3 -4 -5 -7 -7 -7 -6 -8 -8 -8 -4 -2 -1 0 1 1 2 2 2 3 3 3 3 3 3
-1 -0 1 -3 -0 -0 -3 -2 -2 -1 -3 -2 -3 -1 -1 -2 -2 -2 -2 -3 -4 -5 -6 -7 -8 -8 -8 -9 -8 -8 -8 -7 -4 -3 -2 -1 -1 -0 -0 -0 -0 -1 -1 -1
-5 -4 -5 -4 -4 -2 -2 -3 -1 -2 -2 -2 -2 -1 -2 -2 -3 -3 -3 -3 -5 -5 -6 -7 -9 -9 -9 -9 -9 -8 -9 -9 -9 -8 -7 -6 -6 -6 -6 -5 -6 -6 -6 -6
-6 -9 -8 -8 -7 -5 -2 -1 -1 -1 -2 -2 -2 -1 -1 -3 -3 -4 -4 -4 -4 -4 -5 -5 -6 -8 -8 -9 -10 -9 -9 -9 -10 -10 -9 -9 -9 -9 -9 -9 -9 -10 -11 -10
-7 -8 -9 -9 -8 -7 -6 -3 -1 -0 -1 -2 -2 -2 -1 -1 -3 -3 -4 -5 -4 -4 -3 -4 -5 -7 -8 -8 -9 -9 -9 -9 -10 -11 -11 -11 -12 -12 -12 -13 -12 -12 -12 -12
-9 -10 -10 -10 -7 -7 -6 -5 -4 -1 -0 -2 -2 -2 -2 -2 -3 -4 -4 -5 -4 -3 -3 -3 -4 -5 -7 -7 -7 -8 -8 -8 -9 -10 -10 -11 -11 -11 -12 -11 -11 -11 -11 -11
-8 -7 -7 -7 -8 -11 -9 -7 -4 -4 -2 -0 -2 -3 -2 -3 -3 -4 -4 -3 -4 -3 -2 -2 -3 -4 -5 -6 -6 -6 -7 -7 -8 -9 -9 -9 -10 -11 -11 -11 -11 -10 -10 -10
-7 -8 -9 -9 -8 -7 -8 -6 -5 -5 -4 -0 0 -1 -2 -3 -3 -3 -4 -4 -3 -2 -2 -2 -2 -3 -4 -5 -5 -5 -6 -6 -7 -8 -9 -9 -10 -11 -11 -10 -10 -10 -10 -10
-8 -8 -8 -7 -7 -7 -8 -7 -8 -7 -3 -2 -1 -1 -1 -2 -3 -4 -3 -3 -3 -2 -2 -1 -2 -4 -4 -5 -5 -5 -5 -6 -7 -7 -8 -8 -9 -10 -10 -10 -10 -10 -10 -10
-9 -9 -8 -6 -6 -6 -7 -8 -6 -5 -2 -1 -1 -3 -2 -1 -2 -3 -3 -2 -2 -2 -2 -1 -2 -4 -5 -5 -6 -6 -5 -5 -6 -7 -8 -8 -8 -9 -10 -10 -10 -10 -10 -10
-8 -7 -8 -8 -7 -7 -6 -7 -6 -5 -4 -3 -2 -2 -0 -0 -0 -1 -1 -2 -2 -2 -2 -2 -3 -4 -6 -7 -7 -8 -5 -5 -6 -6 -7 -8 -8 -8 -9 -9 -10 -10 -10 -9
-7 -7 -8 -9 -10 -10 -11 -11 -9 -7 -8 -8 -7 -6 -5 -3 -2 -1 -0 -0 -1 -1 -1 -2 -2 -3 -5 -7 -8 -8 -6 -5 -5 -6 -7 -8 -7 -7 -8 -9 -9 -9 -9 -8
-6 -6 -7 -6 -6 -6 -6 -7 -8 -9 -10 -8 -6 -6 -6 -7 -6 -5 -2 0 1 0 -1 -1 -2 -2 -4 -7 -8 -8 -7 -6 -6 -6 -6 -7 -7 -7 -7 -7 -7 -8 -8 -8
-7 -7 -7 -8 -8 -8 -7 -6 -5 -5 -5 -6 -7 -7 -6 -5 -4 -4 -4 -3 -3 -3 -1 -0 -1 -1 -3 -5 -8 -8 -7 -6 -5 -5 -6 -7 -7 -6 -6 -7 -7 -8 -7 -8
-7 -7 -7 -8 -8 -8 -8 -7 -7 -7 -6 -5 -4 -4 -5 -6 -6 -5 -3 -2 -4 -2 -1 0 0 -1 -2 -4 -8 -9 -8 -7 -5 -5 -6 -7 -7 -6 -6 -6 -7 -9 -9 -8
-6 -6 -7 -7 -7 -7 -7 -7 -7 -8 -7 -7 -6 -5 -5 -4 -4 -4 -5 -5 -6 -4 -4 -2 -0 0 -1 -3 -7 -9 -8 -7 -6 -6 -6 -7 -6 -6 -6 -7 -8 -9 -9 -8
-5 -6 -6 -6 -7 -7 -9 -10 -9 -8 -8 -8 -8 -7 -5 -5 -5 -4 -3 -3 -4 -5 -4 -3 -2 -0 -1 -2 -5 -8 -8 -7 -5 -6 -6 -5 -5 -6 -6 -6 -8 -9 -10 -9
-5 -6 -6 -7 -8 -8 -8 -8 -6 -6 -6 -6 -7 -7 -6 -6 -6 -6 -6 -5 -4 -4 -4 -3 -2 -1 -0 -2 -4 -7 -6 -6 -5 -5 -5 -5 -6 -6 -6 -7 -10 -9 -9 -9
-5 -5 -6 -7 -8 -6 -4 -4 -5 -5 -5 -5 -5 -4 -4 -4 -4 -6 -5 -5 -4 -3 -3 -2 -1 -1 -1 -3 -4 -5 -5 -5 -5 -5 -5 -6 -7 -8 -8 -9 -10 -9 -9 -9
-5 -5 -6 -8 -6 -4 -3 -3 -3 -4 -5 -5 -5 -5 -4 -4 -4 -4 -4 -4 -4 -3 -3 -2 -1 -1 -2 -3 -4 -5 -5 -5 -5 -5 -6 -7 -6 -8 -9 -11 -10 -9 -9 -9
-5 -6 -7 -9 -6 -3 -3 -3 -3 -4 -5 -4 -4 -4 -4 -4 -4 -3 -3 -4 -4 -3 -3 -1 -1 -2 -3 -3 -4 -5 -5 -5 -5 -6 -6 -6 -8 -9 -10 -10 -10 -10 -9 -9